GW3448 Weather Reports


Display with metric or nautical units.
time (UTC)temp
F
wind
direction
speed
MPH
gust
MPH
rain 1hr
in
rain 24hr
in
rain mn
in
humidity
%
barometer
mb
20260905184504 66 55 1.0 4.0 0.00 0.00 0.00 60 1016.4
20260905184426 66 318 3.0 4.0 0.00 0.00 0.00 59 1016.4
20260905184347 65 352 3.0 6.0 0.00 0.00 0.00 61 1016.4
20260905184325 65 350 2.0 6.0 0.00 0.00 0.00 60 1016.6
20260905184019 65 17 2.0 6.0 0.00 0.00 0.00 60 1016.4
20260905183955 65 246 2.0 6.0 0.00 0.00 0.00 61 1016.4
20260905183923 65 53 2.0 6.0 0.00 0.00 0.00 59 1016.6
20260905183551 65 285 3.0 6.0 0.00 0.00 0.00 60 1016.4
20260905183451 65 342 3.0 6.0 0.00 0.00 0.00 60 1016.6
20260905183351 65 302 2.0 6.0 0.00 0.00 0.00 60 1016.6
20260905183301 65 320 1.0 5.0 0.00 0.00 0.00 60 1016.6
20260905183239 65 292 2.0 5.0 0.00 0.00 0.00 60 1016.6
20260905183217 65 317 2.0 5.0 0.00 0.00 0.00 62 1016.6
20260905182847 65 352 3.0 5.0 0.00 0.00 0.00 59 1016.7
20260905182746 65 34 2.0 5.0 0.00 0.00 0.00 60 1016.7
20260905182646 65 327 2.0 5.0 0.00 0.00 0.00 60 1016.8
20260905182546 65 290 1.0 5.0 0.00 0.00 0.00 61 1016.8
20260905182445 65 325 1.0 5.0 0.00 0.00 0.00 60 1016.8
20260905182404 65 343 1.0 5.0 0.00 0.00 0.00 60 1016.8
20260905182326 65 303 2.0 5.0 0.00 0.00 0.00 60 1016.8
20260905182305 65 50 2.0 5.0 0.00 0.00 0.00 60 1016.8
20260905181932 65 61 0.0 5.0 0.00 0.00 0.00 60 1016.8
20260905181830 65 339 1.0 5.0 0.00 0.00 0.00 60 1016.9
20260905181730 65 339 2.0 5.0 0.00 0.00 0.00 60 1016.9
20260905181629 65 5 3.0 6.0 0.00 0.00 0.00 61 1016.9
20260905181528 65 319 2.0 6.0 0.00 0.00 0.00 61 1016.9
20260905181432 65 62 1.0 6.0 0.00 0.00 0.00 60 1016.9
20260905181411 65 36 1.0 6.0 0.00 0.00 0.00 61 1016.9
20260905181335 64 334 1.0 6.0 0.00 0.00 0.00 61 1016.9
20260905181314 64 271 1.0 6.0 0.00 0.00 0.00 62 1017.0
20260905181251 64 40 2.0 6.0 0.00 0.00 0.00 61 1017.0
20260905181232 64 238 3.0 6.0 0.00 0.00 0.00 61 1017.0
20260905181208 64 293 4.0 6.0 0.00 0.00 0.00 61 1017.0
20260905181134 64 5 3.0 6.0 0.00 0.00 0.00 61 1017.1
20260905180842 64 67 2.0 4.0 0.00 0.00 0.00 61 1017.0
20260905180550 64 308 2.0 4.0 0.00 0.00 0.00 62 1017.0
20260905180513 64 20 2.0 4.0 0.00 0.00 0.00 62 1017.0
20260905180222 64 21 3.0 4.0 0.00 0.00 0.00 62 1017.0
20260905180202 64 14 3.0 5.0 0.00 0.00 0.00 61 1017.0
20260905180137 64 352 2.0 5.0 0.00 0.00 0.00 62 1017.0
20260905175836 64 286 2.0 8.0 0.00 0.00 0.00 61 1017.1
20260905175543 64 290 1.0 8.0 0.00 0.00 0.00 63 1017.1
20260905175212 64 284 2.0 8.0 0.00 0.00 0.00 63 1017.1
20260905175109 64 323 3.0 8.0 0.00 0.00 0.00 63 1017.1
20260905175008 64 257 2.0 8.0 0.00 0.00 0.00 62 1017.1
20260905174944 64 345 3.0 8.0 0.00 0.00 0.00 63 1017.1
20260905174921 64 267 4.0 8.0 0.00 0.00 0.00 62 1017.1
20260905174849 64 200 4.0 8.0 0.00 0.00 0.00 62 1017.1
20260905174827 64 141 3.0 5.0 0.00 0.00 0.00 62 1017.1
20260905174806 64 155 3.0 5.0 0.00 0.00 0.00 61 1017.1
20260905174743 64 75 2.0 5.0 0.00 0.00 0.00 63 1017.1
20260905174723 64 61 2.0 5.0 0.00 0.00 0.00 62 1017.1
20260905174416 64 345 0.0 6.0 0.00 0.00 0.00 63 1017.1
20260905174128 64 275 0.0 6.0 0.00 0.00 0.00 62 1017.1
20260905174109 64 275 0.0 6.0 0.00 0.00 0.00 62 1017.1
20260905174034 64 275 1.0 6.0 0.00 0.00 0.00 62 1017.1
20260905173744 64 296 2.0 6.0 0.00 0.00 0.00 64 1017.2
20260905173721 63 292 2.0 6.0 0.00 0.00 0.00 65 1017.2
20260905173419 63 279 1.0 5.0 0.00 0.00 0.00 65 1017.2
20260905173132 63 14 2.0 5.0 0.00 0.00 0.00 63 1017.2
20260905172804 63 5 2.0 5.0 0.00 0.00 0.00 64 1017.2
20260905172701 63 17 2.0 5.0 0.00 0.00 0.00 63 1017.2
20260905172601 63 5 2.0 6.0 0.00 0.00 0.00 63 1017.2
20260905172502 63 0 2.0 6.0 0.00 0.00 0.00 63 1017.1
20260905172401 63 49 1.0 6.0 0.00 0.00 0.00 64 1017.1
20260905172331 63 329 0.0 6.0 0.00 0.00 0.00 64 1017.1
20260905172250 63 274 0.0 6.0 0.00 0.00 0.00 64 1017.1
20260905172231 63 297 1.0 6.0 0.00 0.00 0.00 64 1017.1
20260905171904 63 333 2.0 6.0 0.00 0.00 0.00 65 1017.1
20260905171828 62 344 3.0 6.0 0.00 0.00 0.00 65 1017.1
20260905171752 62 341 2.0 6.0 0.00 0.00 0.00 64 1017.1
20260905171731 63 352 2.0 5.0 0.00 0.00 0.00 65 1017.1
20260905171400 62 316 2.0 5.0 0.00 0.00 0.00 65 1017.1
20260905171303 62 16 1.0 5.0 0.00 0.00 0.00 65 1017.1
20260905171203 62 350 1.0 4.0 0.00 0.00 0.00 66 1017.1
20260905171102 62 13 1.0 4.0 0.00 0.00 0.00 65 1017.1
20260905171001 62 298 1.0 4.0 0.00 0.00 0.00 66 1017.1
20260905170928 62 248 1.0 4.0 0.00 0.00 0.00 65 1017.1
20260905170905 62 232 1.0 4.0 0.00 0.00 0.00 64 1017.1
20260905170832 62 273 0.0 4.0 0.00 0.00 0.00 66 1017.1
20260905170544 62 319 2.0 4.0 0.00 0.00 0.00 65 1017.1
20260905170522 62 306 2.0 4.0 0.00 0.00 0.00 66 1017.1
20260905170459 62 337 2.0 4.0 0.00 0.00 0.00 66 1017.1
20260905170422 62 309 1.0 4.0 0.00 0.00 0.00 66 1017.0
20260905170131 62 36 2.0 4.0 0.00 0.00 0.00 66 1017.1
20260905165828 62 15 2.0 4.0 0.00 0.00 0.00 67 1017.1
20260905165755 62 38 1.0 4.0 0.00 0.00 0.00 66 1017.0
20260905165732 62 5 1.0 4.0 0.00 0.00 0.00 67 1017.1
20260905165403 62 274 1.0 4.0 0.00 0.00 0.00 67 1017.0
20260905165306 62 326 1.0 4.0 0.00 0.00 0.00 66 1017.0
20260905165201 62 273 1.0 4.0 0.00 0.00 0.00 67 1016.9
20260905165102 62 344 2.0 4.0 0.00 0.00 0.00 66 1017.0
20260905165000 62 331 2.0 4.0 0.00 0.00 0.00 66 1016.9
20260905164926 62 273 1.0 4.0 0.00 0.00 0.00 67 1016.9
20260905164903 62 336 1.0 4.0 0.00 0.00 0.00 66 1016.9
20260905164831 61 344 1.0 4.0 0.00 0.00 0.00 66 1017.0
20260905164503 61 301 1.0 4.0 0.00 0.00 0.00 66 1016.9
20260905164401 61 329 1.0 4.0 0.00 0.00 0.00 67 1016.9
20260905164201 61 336 2.0 5.0 0.00 0.00 0.00 67 1016.9
20260905164102 61 312 1.0 5.0 0.00 0.00 0.00 66 1016.9
20260905164000 61 272 2.0 5.0 0.00 0.00 0.00 67 1016.9
20260905163902 61 297 2.0 5.0 0.00 0.00 0.00 66 1016.9
20260905163802 61 264 2.0 5.0 0.00 0.00 0.00 66 1016.9
20260905163715 61 319 2.0 5.0 0.00 0.00 0.00 66 1016.9
20260905163652 61 261 1.0 5.0 0.00 0.00 0.00 66 1016.9
20260905163632 61 290 1.0 5.0 0.00 0.00 0.00 68 1016.9
20260905163303 61 331 2.0 5.0 0.00 0.00 0.00 67 1016.9
20260905163202 61 342 2.0 5.0 0.00 0.00 0.00 66 1016.9
20260905163103 61 218 2.0 5.0 0.00 0.00 0.00 66 1017.0
20260905163004 61 275 3.0 5.0 0.00 0.00 0.00 66 1016.9
20260905162903 61 290 3.0 5.0 0.00 0.00 0.00 66 1016.9
20260905162802 61 302 2.0 5.0 0.00 0.00 0.00 66 1016.9
20260905162702 61 315 1.0 5.0 0.00 0.00 0.00 67 1016.9
20260905162617 61 299 2.0 5.0 0.00 0.00 0.00 66 1016.9
20260905162555 61 281 2.0 5.0 0.00 0.00 0.00 66 1016.9
20260905162533 61 326 2.0 5.0 0.00 0.00 0.00 66 1016.9
20260905162213 61 291 3.0 5.0 0.00 0.00 0.00 66 1016.8
20260905162153 61 5 4.0 5.0 0.00 0.00 0.00 66 1016.8
20260905162131 61 347 2.0 7.0 0.00 0.00 0.00 66 1016.8
20260905161814 62 292 2.0 7.0 0.00 0.00 0.00 68 1016.7
20260905161738 62 290 2.0 7.0 0.00 0.00 0.00 67 1016.8
20260905161715 62 352 2.0 7.0 0.00 0.00 0.00 66 1016.7
20260905161653 62 323 1.0 7.0 0.00 0.00 0.00 67 1016.7
20260905161631 62 327 1.0 7.0 0.00 0.00 0.00 67 1016.7
20260905161610 62 290 3.0 7.0 0.00 0.00 0.00 67 1016.7
20260905161303 62 349 3.0 7.0 0.00 0.00 0.00 66 1016.6
20260905161009 62 291 3.0 6.0 0.00 0.00 0.00 66 1016.6
20260905160948 62 298 3.0 6.0 0.00 0.00 0.00 66 1016.6
20260905160601 62 347 3.0 8.0 0.00 0.00 0.00 67 1016.6
20260905160504 62 319 3.0 8.0 0.00 0.00 0.00 68 1016.4
20260905160404 62 304 3.0 8.0 0.00 0.00 0.00 68 1016.4
20260905160340 62 315 2.0 8.0 0.00 0.00 0.00 68 1016.4
20260905160300 62 288 2.0 8.0 0.00 0.00 0.00 67 1016.4
20260905160239 62 349 2.0 8.0 0.00 0.00 0.00 67 1016.4
20260905160216 62 307 2.0 8.0 0.00 0.00 0.00 67 1016.3
20260905155923 62 281 4.0 8.0 0.00 0.00 0.00 66 1016.3
20260905155904 62 324 3.0 8.0 0.00 0.00 0.00 66 1016.4
20260905155826 62 274 2.0 11.0 0.00 0.00 0.00 66 1016.3
20260905155805 62 283 2.0 11.0 0.00 0.00 0.00 67 1016.3
20260905155231 62 343 2.0 11.0 0.00 0.00 0.00 69 1016.3
20260905155154 62 333 2.0 11.0 0.00 0.00 0.00 69 1016.3
20260905155132 61 272 3.0 11.0 0.00 0.00 0.00 69 1016.3
20260905154801 61 5 5.0 11.0 0.00 0.00 0.00 68 1016.3
20260905154714 61 299 3.0 11.0 0.00 0.00 0.00 67 1016.3
20260905154600 62 11 3.0 9.0 0.00 0.00 0.00 69 1016.3
20260905154537 61 306 4.0 9.0 0.00 0.00 0.00 68 1016.4
20260905154515 61 292 4.0 9.0 0.00 0.00 0.00 68 1016.3
20260905154454 61 288 4.0 9.0 0.00 0.00 0.00 68 1016.3
20260905154431 61 250 2.0 9.0 0.00 0.00 0.00 69 1016.3
20260905154124 61 240 2.0 7.0 0.00 0.00 0.00 69 1016.3
20260905154103 61 301 3.0 7.0 0.00 0.00 0.00 68 1016.3
20260905154043 61 298 4.0 7.0 0.00 0.00 0.00 69 1016.3
20260905154020 61 302 4.0 7.0 0.00 0.00 0.00 68 1016.3
20260905153443 61 316 3.0 9.0 0.00 0.00 0.00 69 1016.3
20260905153420 61 286 3.0 9.0 0.00 0.00 0.00 69 1016.3
20260905153357 61 290 2.0 9.0 0.00 0.00 0.00 69 1016.3
20260905153324 61 280 2.0 9.0 0.00 0.00 0.00 70 1016.3
20260905153032 61 279 4.0 9.0 0.00 0.00 0.00 71 1016.3
20260905152705 61 260 6.0 9.0 0.00 0.00 0.00 70 1016.4
20260905152600 61 292 4.0 9.0 0.00 0.00 0.00 70 1016.4
20260905152502 61 263 3.0 9.0 0.00 0.00 0.00 70 1016.4
20260905152401 61 263 3.0 7.0 0.00 0.00 0.00 71 1016.6
20260905152306 61 280 2.0 7.0 0.00 0.00 0.00 71 1016.6
20260905152202 61 284 2.0 7.0 0.00 0.00 0.00 72 1016.6
20260905152102 61 202 2.0 7.0 0.00 0.00 0.00 71 1016.6
20260905152000 60 273 3.0 7.0 0.00 0.00 0.00 71 1016.6
20260905151902 60 324 3.0 7.0 0.00 0.00 0.00 71 1016.6
20260905151802 60 327 3.0 7.0 0.00 0.00 0.00 70 1016.6
20260905151702 60 248 3.0 7.0 0.00 0.00 0.00 70 1016.6
20260905151602 60 281 2.0 5.0 0.00 0.00 0.00 71 1016.6
20260905151515 60 267 1.0 5.0 0.00 0.00 0.00 73 1016.6
20260905151452 60 342 0.0 6.0 0.00 0.00 0.00 73 1016.7
20260905151429 60 267 1.0 6.0 0.00 0.00 0.00 74 1016.7
20260905151040 60 304 2.0 6.0 0.00 0.00 0.00 74 1016.7
20260905150940 60 277 2.0 6.0 0.00 0.00 0.00 74 1016.7
20260905150839 60 286 2.0 6.0 0.00 0.00 0.00 73 1016.6
20260905150738 60 282 2.0 6.0 0.00 0.00 0.00 73 1016.7
20260905150641 60 259 2.0 6.0 0.00 0.00 0.00 73 1016.6
20260905150537 60 281 2.0 6.0 0.00 0.00 0.00 72 1016.6
20260905150437 60 301 1.0 4.0 0.00 0.00 0.00 73 1016.6
20260905150335 60 290 0.0 3.0 0.00 0.00 0.00 74 1016.7
20260905150234 60 5 0.0 3.0 0.00 0.00 0.00 76 1016.7
20260905150131 60 5 0.0 3.0 0.00 0.00 0.00 76 1016.6
20260905150036 59 5 0.0 3.0 0.00 0.00 0.00 74 1016.6
20260905150014 59 5 0.0 3.0 0.00 0.00 0.00 74 1016.6
20260905145952 59 5 0.0 3.0 0.00 0.00 0.00 75 1016.6
20260905145934 59 5 0.0 3.0 0.00 0.00 0.00 76 1016.6
20260905145859 59 5 0.0 3.0 0.00 0.00 0.00 75 1016.6
20260905145838 59 5 1.0 3.0 0.00 0.00 0.00 75 1016.6
20260905145816 59 10 1.0 3.0 0.00 0.00 0.00 75 1016.6
20260905145758 59 322 0.0 0.0 0.00 0.00 0.00 77 1016.6
20260905145735 58 322 0.0 0.0 0.00 0.00 0.00 77 1016.6
20260905145432 58 322 0.0 0.0 0.00 0.00 0.00 77 1016.6
20260905144604 58 322 0.0 1.0 0.00 0.00 0.00 79 1016.6
20260905144505 58 322 0.0 1.0 0.00 0.00 0.00 80 1016.6
20260905144401 58 322 0.0 1.0 0.00 0.00 0.00 79 1016.4
20260905144304 58 322 0.0 1.0 0.00 0.00 0.00 79 1016.4
20260905144202 58 322 0.0 1.0 0.00 0.00 0.00 79 1016.6
20260905144102 58 322 0.0 1.0 0.00 0.00 0.00 79 1016.4
20260905144002 57 322 0.0 1.0 0.00 0.00 0.00 79 1016.4
20260905143904 58 322 0.0 1.0 0.00 0.00 0.00 79 1016.6
20260905143804 58 322 0.0 1.0 0.00 0.00 0.00 80 1016.4
20260905143703 58 178 0.0 0.0 0.00 0.00 0.00 79 1016.6
20260905143613 58 178 0.0 0.0 0.00 0.00 0.00 79 1016.6
20260905143555 58 178 0.0 0.0 0.00 0.00 0.00 79 1016.6
20260905143535 57 178 0.0 0.0 0.00 0.00 0.00 78 1016.6
20260905143229 57 178 0.0 0.0 0.00 0.00 0.00 77 1016.6
20260905143153 57 178 0.0 0.0 0.00 0.00 0.00 77 1016.7
20260905143132 57 178 0.0 0.0 0.00 0.00 0.00 78 1016.7
20260905142803 57 178 0.0 0.0 0.00 0.00 0.00 77 1016.6
20260905142702 57 178 0.0 0.0 0.00 0.00 0.00 77 1016.6
20260905142616 57 178 0.0 0.0 0.00 0.00 0.00 77 1016.4
20260905142555 57 178 0.0 0.0 0.00 0.00 0.00 76 1016.4
20260905142535 57 178 0.0 0.0 0.00 0.00 0.00 77 1016.4
20260905142203 57 178 0.0 0.0 0.00 0.00 0.00 77 1016.4
20260905142117 57 178 0.0 0.0 0.00 0.00 0.00 77 1016.4
20260905142053 57 178 0.0 0.0 0.00 0.00 0.00 77 1016.4
20260905142034 57 178 0.0 0.0 0.00 0.00 0.00 77 1016.4
20260905142014 57 178 0.0 0.0 0.00 0.00 0.00 76 1016.4
20260905141706 57 178 0.0 0.0 0.00 0.00 0.00 76 1016.4
20260905141336 57 178 0.0 0.0 0.00 0.00 0.00 76 1016.4
20260905141235 57 178 0.0 0.0 0.00 0.00 0.00 76 1016.4
20260905141156 57 178 0.0 0.0 0.00 0.00 0.00 76 1016.6
20260905141119 57 178 0.0 0.0 0.00 0.00 0.00 76 1016.6
20260905141059 57 178 0.0 0.0 0.00 0.00 0.00 76 1016.4
20260905140730 57 178 0.0 0.0 0.00 0.00 0.00 76 1016.6
20260905140631 57 178 0.0 0.0 0.00 0.00 0.00 76 1016.6
20260905140529 57 178 0.0 0.0 0.00 0.00 0.00 76 1016.6
20260905140430 57 178 0.0 0.0 0.00 0.00 0.00 76 1016.6
20260905140329 57 178 0.0 0.0 0.00 0.00 0.00 76 1016.4
20260905140252 57 178 0.0 0.0 0.00 0.00 0.00 76 1016.6
20260905140231 57 178 0.0 0.0 0.00 0.00 0.00 76 1016.6
20260905140156 57 178 0.0 0.0 0.00 0.00 0.00 76 1016.4
20260905135830 57 178 0.0 0.0 0.00 0.00 0.00 76 1016.4
20260905135729 57 178 0.0 0.0 0.00 0.00 0.00 76 1016.4
20260905135627 57 178 0.0 0.0 0.00 0.00 0.00 76 1016.4
20260905135522 57 178 0.0 0.0 0.00 0.00 0.00 76 1016.6
20260905135410 57 178 0.0 0.0 0.00 0.00 0.00 76 1016.6
20260905135334 57 178 0.0 0.0 0.00 0.00 0.00 76 1016.4
20260905135310 57 178 0.0 0.0 0.00 0.00 0.00 76 1016.6
20260905135251 57 178 0.0 0.0 0.00 0.00 0.00 76 1016.6
20260905134903 57 178 0.0 0.0 0.00 0.00 0.00 76 1016.6
20260905134803 57 178 0.0 0.0 0.00 0.00 0.00 76 1016.4
20260905134703 57 178 0.0 0.0 0.00 0.00 0.00 76 1016.4
20260905134614 57 178 0.0 0.0 0.00 0.00 0.00 76 1016.4
20260905134555 57 178 0.0 0.0 0.00 0.00 0.00 76 1016.4
20260905134532 57 178 0.0 0.0 0.00 0.00 0.00 76 1016.3
20260905134202 57 178 0.0 0.0 0.00 0.00 0.00 76 1016.2
20260905134102 57 178 0.0 0.0 0.00 0.00 0.00 76 1016.2
20260905134001 57 178 0.0 0.0 0.00 0.00 0.00 76 1016.2
20260905133904 57 178 0.0 0.0 0.00 0.00 0.00 76 1016.2
20260905133803 57 178 0.0 0.0 0.00 0.00 0.00 76 1016.1
20260905133701 57 178 0.0 0.0 0.00 0.00 0.00 76 1016.1
20260905133600 57 178 0.0 0.0 0.00 0.00 0.00 76 1016.1
20260905133504 57 178 0.0 0.0 0.00 0.00 0.00 76 1016.1
20260905133406 57 178 0.0 0.0 0.00 0.00 0.00 76 1016.1
20260905133303 56 178 0.0 0.0 0.00 0.00 0.00 76 1016.0
20260905133201 56 178 0.0 0.0 0.00 0.00 0.00 76 1016.0
20260905133116 56 178 0.0 0.0 0.00 0.00 0.00 76 1016.0
20260905133001 56 178 0.0 0.0 0.00 0.00 0.00 76 1016.0
20260905132903 56 178 0.0 0.0 0.00 0.00 0.00 76 1016.0
20260905132801 56 178 0.0 0.0 0.00 0.00 0.00 76 1015.9
20260905132702 56 178 0.0 0.0 0.00 0.00 0.00 76 1015.9
20260905132612 56 178 0.0 0.0 0.00 0.00 0.00 76 1015.9
20260905132502 56 178 0.0 0.0 0.00 0.00 0.00 76 1016.0
20260905132401 56 178 0.0 0.0 0.00 0.00 0.00 77 1016.0
20260905132305 56 178 0.0 0.0 0.00 0.00 0.00 77 1016.0
20260905132201 56 178 0.0 0.0 0.00 0.00 0.00 77 1016.0
20260905132126 56 178 0.0 0.0 0.00 0.00 0.00 77 1016.0
20260905132049 56 178 0.0 0.0 0.00 0.00 0.00 76 1016.0
20260905132030 56 178 0.0 0.0 0.00 0.00 0.00 76 1016.0
20260905131701 56 178 0.0 0.0 0.00 0.00 0.00 76 1016.0
20260905131609 56 178 0.0 0.0 0.00 0.00 0.00 76 1016.0
20260905131503 56 178 0.0 0.0 0.00 0.00 0.00 76 1015.9
20260905131402 56 178 0.0 0.0 0.00 0.00 0.00 76 1016.0
20260905131304 56 178 0.0 0.0 0.00 0.00 0.00 76 1016.0
20260905131201 56 178 0.0 0.0 0.00 0.00 0.00 76 1016.0
20260905131108 56 178 0.0 0.0 0.00 0.00 0.00 76 1016.0
20260905131002 56 178 0.0 0.0 0.00 0.00 0.00 76 1016.0
20260905130905 56 178 0.0 0.0 0.00 0.00 0.00 77 1016.0
20260905130848 56 178 0.0 0.0 0.00 0.00 0.00 76 1016.0
20260905130827 56 178 0.0 0.0 0.00 0.00 0.00 76 1015.9
20260905130807 56 178 0.0 0.0 0.00 0.00 0.00 76 1015.9
20260905130733 56 178 0.0 0.0 0.00 0.00 0.00 76 1015.9
20260905130444 56 178 0.0 0.0 0.00 0.00 0.00 75 1015.9
20260905130151 56 178 0.0 0.0 0.00 0.00 0.00 75 1015.9
20260905130115 56 178 0.0 0.0 0.00 0.00 0.00 75 1015.9
20260905130058 56 178 0.0 0.0 0.00 0.00 0.00 75 1015.9
20260905130038 56 178 0.0 0.0 0.00 0.00 0.00 75 1015.9
20260905130019 56 178 0.0 0.0 0.00 0.00 0.00 75 1015.8
20260905125959 56 178 0.0 0.0 0.00 0.00 0.00 75 1015.9
20260905125659 56 178 0.0 0.0 0.00 0.00 0.00 75 1015.8
20260905125104 56 178 0.0 0.0 0.00 0.00 0.00 75 1015.8
20260905125001 56 178 0.0 0.0 0.00 0.00 0.00 75 1015.8
20260905124903 56 178 0.0 0.0 0.00 0.00 0.00 75 1015.8
20260905124802 56 178 0.0 0.0 0.00 0.00 0.00 75 1015.8
20260905124703 57 178 0.0 0.0 0.00 0.00 0.00 75 1015.8
20260905124601 57 178 0.0 0.0 0.00 0.00 0.00 75 1015.8
20260905124504 57 178 0.0 0.0 0.00 0.00 0.00 75 1015.8
20260905124400 57 178 0.0 0.0 0.00 0.00 0.00 75 1015.8
20260905124304 57 178 0.0 0.0 0.00 0.00 0.00 75 1015.7
20260905124218 57 178 0.0 0.0 0.00 0.00 0.00 75 1015.7
20260905124159 57 178 0.0 0.0 0.00 0.00 0.00 75 1015.7
20260905124123 57 178 0.0 0.0 0.00 0.00 0.00 75 1015.7
20260905124103 57 178 0.0 0.0 0.00 0.00 0.00 75 1015.7
20260905124041 57 178 0.0 0.0 0.00 0.00 0.00 75 1015.7
20260905123758 57 178 0.0 0.0 0.00 0.00 0.00 74 1015.7
20260905123724 57 178 0.0 0.0 0.00 0.00 0.00 74 1015.7
20260905123703 57 178 0.0 0.0 0.00 0.00 0.00 74 1015.7
20260905123109 57 178 0.0 0.0 0.00 0.00 0.00 74 1015.7
20260905123030 57 178 0.0 0.0 0.00 0.00 0.00 74 1015.7
20260905123014 57 178 0.0 0.0 0.00 0.00 0.00 74 1015.7
20260905122952 57 178 0.0 0.0 0.00 0.00 0.00 74 1015.7
20260905122701 57 178 0.0 0.0 0.00 0.00 0.00 74 1015.7
20260905122629 57 178 0.0 0.0 0.00 0.00 0.00 74 1015.7
20260905122306 57 178 0.0 0.0 0.00 0.00 0.00 74 1015.7
20260905122200 57 178 0.0 0.0 0.00 0.00 0.00 74 1015.6
20260905122103 57 178 0.0 0.0 0.00 0.00 0.00 74 1015.6
20260905122002 57 178 0.0 0.0 0.00 0.00 0.00 74 1015.5
20260905121900 57 178 0.0 0.0 0.00 0.00 0.00 74 1015.5
20260905121800 57 178 0.0 0.0 0.00 0.00 0.00 74 1015.5
20260905121659 57 178 0.0 0.0 0.00 0.00 0.00 74 1015.5
20260905121559 57 178 0.0 0.0 0.00 0.00 0.00 74 1015.5
20260905121518 57 178 0.0 0.0 0.00 0.00 0.00 74 1015.5
20260905121455 57 178 0.0 0.0 0.00 0.00 0.00 73 1015.5
20260905121432 57 178 0.0 0.0 0.00 0.00 0.00 74 1015.5
20260905121415 57 178 0.0 0.0 0.00 0.00 0.00 73 1015.5
20260905121110 57 178 0.0 0.0 0.00 0.00 0.00 73 1015.5
20260905120733 57 178 0.0 0.0 0.00 0.00 0.00 73 1015.5
20260905120632 57 178 0.0 0.0 0.00 0.00 0.00 73 1015.4
20260905120540 57 178 0.0 0.0 0.00 0.00 0.00 73 1015.4
20260905120429 57 178 0.0 0.0 0.00 0.00 0.00 73 1015.4
20260905120330 57 178 0.0 0.0 0.00 0.00 0.00 73 1015.4
20260905120249 57 178 0.0 0.0 0.00 0.00 0.00 73 1015.3
20260905120228 58 178 0.0 0.0 0.00 0.00 0.00 73 1015.4
20260905120211 58 178 0.0 0.0 0.00 0.00 0.00 72 1015.3
20260905115842 58 178 0.0 0.0 0.00 0.00 0.00 72 1015.3
20260905115820 58 178 0.0 1.0 0.00 0.00 0.00 72 1015.4
20260905115802 58 178 0.0 1.0 0.00 0.00 0.00 72 1015.3
20260905115429 58 178 0.0 2.0 0.00 0.00 0.00 72 1015.4
20260905115330 58 178 0.0 2.0 0.00 0.00 0.00 72 1015.4
20260905115229 58 178 0.0 2.0 0.00 0.00 0.00 72 1015.3
20260905115129 58 178 0.0 2.0 0.00 0.00 0.00 72 1015.3
20260905115033 58 178 0.0 2.0 0.00 0.00 0.00 72 1015.2
20260905114923 58 178 0.0 3.0 0.00 0.00 0.00 72 1015.2
20260905114813 58 185 0.0 3.0 0.00 0.00 0.00 71 1015.2
20260905114706 58 252 1.0 3.0 0.00 0.00 0.00 71 1015.1
20260905114602 58 249 1.0 3.0 0.00 0.00 0.00 71 1015.1
20260905114501 58 258 2.0 3.0 0.00 0.00 0.00 71 1015.1
20260905114402 58 259 1.0 3.0 0.00 0.00 0.00 71 1015.1
20260905114304 58 257 1.0 3.0 0.00 0.00 0.00 71 1015.0
20260905114202 58 266 1.0 3.0 0.00 0.00 0.00 71 1015.0
20260905114101 58 271 2.0 3.0 0.00 0.00 0.00 71 1015.0
20260905114000 58 265 1.0 3.0 0.00 0.00 0.00 71 1015.0
20260905113901 58 260 0.0 3.0 0.00 0.00 0.00 71 1015.0
20260905113801 58 259 0.0 3.0 0.00 0.00 0.00 71 1015.0
20260905113700 58 263 1.0 3.0 0.00 0.00 0.00 71 1015.0
20260905113601 58 263 1.0 4.0 0.00 0.00 0.00 71 1015.0
20260905113450 59 265 1.0 4.0 0.00 0.00 0.00 71 1015.0
20260905113344 59 275 1.0 4.0 0.00 0.00 0.00 70 1015.1
20260905113240 59 263 1.0 4.0 0.00 0.00 0.00 70 1015.0
20260905113139 59 265 1.0 4.0 0.00 0.00 0.00 70 1015.0
20260905113038 59 265 2.0 4.0 0.00 0.00 0.00 70 1015.0
20260905112945 59 265 2.0 4.0 0.00 0.00 0.00 70 1015.0
20260905112923 59 277 3.0 4.0 0.00 0.00 0.00 70 1014.9
20260905112901 59 274 2.0 4.0 0.00 0.00 0.00 70 1014.9
20260905112529 59 271 2.0 4.0 0.00 0.00 0.00 70 1015.0
20260905112431 59 266 2.0 4.0 0.00 0.00 0.00 70 1015.0
20260905112329 59 271 2.0 4.0 0.00 0.00 0.00 70 1015.0
20260905112231 59 270 2.0 4.0 0.00 0.00 0.00 70 1015.0
20260905112129 59 294 2.0 3.0 0.00 0.00 0.00 70 1015.0
20260905112030 59 271 2.0 4.0 0.00 0.00 0.00 70 1015.0
20260905111930 59 275 2.0 4.0 0.00 0.00 0.00 70 1015.1
20260905111832 59 284 2.0 4.0 0.00 0.00 0.00 69 1015.0
20260905111729 59 256 2.0 4.0 0.00 0.00 0.00 69 1015.0
20260905111650 59 267 2.0 4.0 0.00 0.00 0.00 69 1015.0
20260905111628 59 261 1.0 4.0 0.00 0.00 0.00 69 1015.0
20260905111551 59 271 2.0 4.0 0.00 0.00 0.00 69 1015.1
20260905111530 59 254 2.0 4.0 0.00 0.00 0.00 69 1015.1
20260905111508 59 267 2.0 4.0 0.00 0.00 0.00 69 1015.0
20260905111215 59 258 3.0 4.0 0.00 0.00 0.00 68 1015.0
20260905110834 59 260 1.0 3.0 0.00 0.00 0.00 68 1015.0
20260905110729 59 257 0.0 3.0 0.00 0.00 0.00 68 1015.0
20260905110630 59 256 0.0 3.0 0.00 0.00 0.00 68 1015.0
20260905110542 59 265 1.0 3.0 0.00 0.00 0.00 68 1015.0
20260905110507 59 263 1.0 3.0 0.00 0.00 0.00 68 1015.0
20260905110440 59 263 1.0 3.0 0.00 0.00 0.00 68 1014.9
20260905110419 59 282 1.0 3.0 0.00 0.00 0.00 68 1014.9
20260905110357 59 273 1.0 2.0 0.00 0.00 0.00 68 1014.9
20260905110336 59 239 1.0 2.0 0.00 0.00 0.00 68 1014.9
20260905110030 59 267 1.0 2.0 0.00 0.00 0.00 68 1015.0
20260905105737 59 334 1.0 3.0 0.00 0.00 0.00 68 1015.0
20260905105715 59 293 1.0 3.0 0.00 0.00 0.00 68 1014.9
20260905105330 59 292 0.0 3.0 0.00 0.00 0.00 68 1014.9
20260905105231 59 306 0.0 3.0 0.00 0.00 0.00 68 1014.9
20260905105130 59 269 0.0 3.0 0.00 0.00 0.00 68 1014.9
20260905105039 59 269 0.0 4.0 0.00 0.00 0.00 68 1015.0
20260905105004 59 269 1.0 4.0 0.00 0.00 0.00 68 1014.9
20260905104941 59 269 2.0 4.0 0.00 0.00 0.00 68 1014.9
20260905104921 59 274 2.0 4.0 0.00 0.00 0.00 67 1014.9
20260905104856 59 267 1.0 4.0 0.00 0.00 0.00 67 1015.0
20260905104549 59 272 2.0 4.0 0.00 0.00 0.00 67 1015.0
20260905104529 59 264 2.0 4.0 0.00 0.00 0.00 67 1015.0
20260905104506 59 264 2.0 4.0 0.00 0.00 0.00 67 1014.9
20260905104443 59 256 2.0 4.0 0.00 0.00 0.00 67 1015.0
20260905104137 59 261 2.0 4.0 0.00 0.00 0.00 67 1015.0
20260905104113 59 266 2.0 4.0 0.00 0.00 0.00 67 1015.0
20260905104053 59 263 2.0 4.0 0.00 0.00 0.00 67 1015.0
20260905103803 59 265 2.0 4.0 0.00 0.00 0.00 66 1015.0
20260905103724 59 263 2.0 4.0 0.00 0.00 0.00 66 1015.0
20260905103431 59 264 0.0 4.0 0.00 0.00 0.00 66 1015.0
20260905103141 59 258 1.0 2.0 0.00 0.00 0.00 66 1015.0
20260905103107 59 259 1.0 2.0 0.00 0.00 0.00 66 1015.0
20260905102813 59 267 0.0 2.0 0.00 0.00 0.00 65 1015.0
20260905102752 59 292 0.0 0.0 0.00 0.00 0.00 65 1014.9
20260905102736 59 292 0.0 0.0 0.00 0.00 0.00 65 1014.9
20260905102432 59 292 0.0 1.0 0.00 0.00 0.00 66 1014.9
20260905102100 59 292 0.0 2.0 0.00 0.00 0.00 65 1014.9
20260905102001 59 292 0.0 2.0 0.00 0.00 0.00 65 1014.9
20260905101901 59 292 0.0 2.0 0.00 0.00 0.00 65 1014.9
20260905101827 59 292 0.0 2.0 0.00 0.00 0.00 65 1014.9
20260905101806 59 292 0.0 2.0 0.00 0.00 0.00 65 1014.9
20260905101747 59 292 0.0 4.0 0.00 0.00 0.00 65 1014.9
20260905101730 59 292 1.0 4.0 0.00 0.00 0.00 65 1014.9
20260905101428 59 291 0.0 4.0 0.00 0.00 0.00 65 1015.0
20260905101055 59 250 1.0 4.0 0.00 0.00 0.00 65 1015.0
20260905100955 59 248 0.0 4.0 0.00 0.00 0.00 65 1015.0
20260905100853 59 288 1.0 4.0 0.00 0.00 0.00 65 1014.9
20260905100753 59 271 2.0 4.0 0.00 0.00 0.00 65 1014.9
20260905100653 59 273 1.0 4.0 0.00 0.00 0.00 65 1014.9
20260905100553 59 256 2.0 4.0 0.00 0.00 0.00 65 1014.9
20260905100501 59 254 3.0 4.0 0.00 0.00 0.00 65 1015.0
20260905100419 59 296 2.0 4.0 0.00 0.00 0.00 65 1014.9
20260905100356 59 270 1.0 4.0 0.00 0.00 0.00 65 1014.9
20260905100331 59 277 1.0 3.0 0.00 0.00 0.00 65 1015.0
20260905100035 59 282 2.0 3.0 0.00 0.00 0.00 65 1014.9
20260905100000 59 257 1.0 3.0 0.00 0.00 0.00 65 1015.0
20260905095631 59 271 0.0 3.0 0.00 0.00 0.00 65 1015.0
20260905095529 59 281 0.0 3.0 0.00 0.00 0.00 65 1015.0
20260905095436 59 281 1.0 3.0 0.00 0.00 0.00 65 1015.0
20260905095330 59 279 1.0 3.0 0.00 0.00 0.00 65 1015.0
20260905095231 59 284 0.0 3.0 0.00 0.00 0.00 65 1015.0
20260905095131 59 263 0.0 2.0 0.00 0.00 0.00 65 1014.9
20260905095032 59 263 0.0 2.0 0.00 0.00 0.00 65 1015.0
20260905095006 59 263 0.0 2.0 0.00 0.00 0.00 65 1015.0
20260905094932 59 263 0.0 2.0 0.00 0.00 0.00 65 1015.0
20260905094913 59 263 1.0 2.0 0.00 0.00 0.00 64 1015.0
20260905094851 59 269 0.0 2.0 0.00 0.00 0.00 64 1015.0
20260905094826 59 269 0.0 2.0 0.00 0.00 0.00 65 1015.0
20260905094751 59 291 0.0 2.0 0.00 0.00 0.00 65 1015.0
20260905094232 60 276 0.0 2.0 0.00 0.00 0.00 65 1015.0
20260905093902 60 276 0.0 2.0 0.00 0.00 0.00 65 1014.9
20260905093802 60 276 0.0 2.0 0.00 0.00 0.00 64 1015.0
20260905093701 60 276 0.0 2.0 0.00 0.00 0.00 64 1015.0
20260905093603 60 276 0.0 2.0 0.00 0.00 0.00 64 1015.0
20260905093519 60 276 0.0 2.0 0.00 0.00 0.00 64 1015.0
20260905093443 60 276 0.0 2.0 0.00 0.00 0.00 64 1015.0
20260905093419 60 276 1.0 2.0 0.00 0.00 0.00 64 1015.1
20260905093358 60 276 0.0 2.0 0.00 0.00 0.00 63 1015.0
20260905093338 60 263 0.0 2.0 0.00 0.00 0.00 64 1015.1
20260905093316 60 240 0.0 1.0 0.00 0.00 0.00 64 1015.1
20260905092700 60 232 0.0 2.0 0.00 0.00 0.00 64 1015.1
20260905092602 60 177 0.0 3.0 0.00 0.00 0.00 63 1015.1
20260905092501 60 177 0.0 3.0 0.00 0.00 0.00 63 1015.1
20260905092403 60 177 0.0 3.0 0.00 0.00 0.00 63 1015.1
20260905092306 60 177 0.0 3.0 0.00 0.00 0.00 63 1015.1
20260905092203 60 177 0.0 3.0 0.00 0.00 0.00 63 1015.0
20260905092104 60 178 0.0 3.0 0.00 0.00 0.00 63 1015.0
20260905092002 60 184 1.0 3.0 0.00 0.00 0.00 63 1015.1
20260905091902 60 186 2.0 3.0 0.00 0.00 0.00 63 1015.1
20260905091803 60 186 1.0 3.0 0.00 0.00 0.00 63 1015.0
20260905091702 60 180 0.0 3.0 0.00 0.00 0.00 63 1015.0
20260905091604 60 186 0.0 1.0 0.00 0.00 0.00 63 1015.0
20260905091500 60 211 0.0 2.0 0.00 0.00 0.00 63 1015.0
20260905091415 60 214 0.0 2.0 0.00 0.00 0.00 63 1015.0
20260905091302 60 214 0.0 2.0 0.00 0.00 0.00 63 1015.0
20260905091201 60 214 1.0 2.0 0.00 0.00 0.00 63 1014.9
20260905091100 60 211 0.0 3.0 0.00 0.00 0.00 63 1014.9
20260905091002 60 213 0.0 3.0 0.00 0.00 0.00 63 1014.9
20260905090913 60 259 0.0 3.0 0.00 0.00 0.00 63 1014.9
20260905090803 60 259 1.0 3.0 0.00 0.00 0.00 63 1014.9
20260905090722 60 259 1.0 3.0 0.00 0.00 0.00 63 1014.8
20260905090702 60 259 1.0 3.0 0.00 0.00 0.00 63 1014.8
20260905090641 60 255 1.0 3.0 0.00 0.00 0.00 63 1014.8
20260905090302 60 279 1.0 3.0 0.00 0.00 0.00 63 1014.8
20260905090201 60 264 1.0 3.0 0.00 0.00 0.00 63 1014.7
20260905090101 60 278 1.0 3.0 0.00 0.00 0.00 63 1014.8
20260905090002 60 276 1.0 3.0 0.00 0.00 0.00 63 1014.7
20260905085906 60 276 1.0 3.0 0.00 0.00 0.00 63 1014.8
20260905085801 60 284 1.0 3.0 0.00 0.00 0.00 63 1014.7
20260905085700 60 280 1.0 3.0 0.00 0.00 0.00 63 1014.7
20260905085600 60 279 1.0 3.0 0.00 0.00 0.00 62 1014.7
20260905085502 60 282 1.0 3.0 0.00 0.00 0.00 62 1014.7
20260905085407 60 277 2.0 3.0 0.00 0.00 0.00 62 1014.7
20260905085300 60 277 2.0 3.0 0.00 0.00 0.00 62 1014.7
20260905085201 60 257 1.0 3.0 0.00 0.00 0.00 63 1014.7
20260905085101 60 271 1.0 3.0 0.00 0.00 0.00 62 1014.7
20260905085001 60 258 1.0 3.0 0.00 0.00 0.00 62 1014.7
20260905084904 60 261 1.0 6.0 0.00 0.00 0.00 63 1014.7
20260905084801 60 260 2.0 6.0 0.00 0.00 0.00 62 1014.7
20260905084702 60 236 2.0 6.0 0.00 0.00 0.00 62 1014.7
20260905084602 60 265 2.0 6.0 0.00 0.00 0.00 63 1014.6
20260905084501 60 272 1.0 6.0 0.00 0.00 0.00 63 1014.7
20260905084406 60 288 1.0 6.0 0.00 0.00 0.00 63 1014.6
20260905084317 60 285 1.0 6.0 0.00 0.00 0.00 63 1014.6
20260905084253 60 284 2.0 6.0 0.00 0.00 0.00 63 1014.6
20260905084232 60 255 2.0 6.0 0.00 0.00 0.00 62 1014.6
20260905083904 60 288 0.0 4.0 0.00 0.00 0.00 63 1014.7
20260905083801 60 281 0.0 4.0 0.00 0.00 0.00 62 1014.6
20260905083655 60 281 0.0 4.0 0.00 0.00 0.00 63 1014.6
20260905083553 60 281 1.0 4.0 0.00 0.00 0.00 63 1014.6
20260905083455 60 281 2.0 4.0 0.00 0.00 0.00 63 1014.7
20260905083422 60 280 2.0 4.0 0.00 0.00 0.00 62 1014.6
20260905083343 60 285 2.0 4.0 0.00 0.00 0.00 63 1014.6
20260905083321 60 284 2.0 5.0 0.00 0.00 0.00 63 1014.6
20260905083006 60 271 1.0 5.0 0.00 0.00 0.00 63 1014.6
20260905082944 60 284 1.0 5.0 0.00 0.00 0.00 63 1014.6
20260905082906 60 288 1.0 5.0 0.00 0.00 0.00 63 1014.6
20260905082844 60 284 1.0 5.0 0.00 0.00 0.00 63 1014.7
20260905082551 61 259 2.0 5.0 0.00 0.00 0.00 62 1014.6
20260905082529 61 254 2.0 5.0 0.00 0.00 0.00 63 1014.6
20260905082144 61 258 2.0 3.0 0.00 0.00 0.00 63 1014.6
20260905082044 61 271 2.0 3.0 0.00 0.00 0.00 63 1014.6
20260905081944 61 300 2.0 4.0 0.00 0.00 0.00 62 1014.6
20260905081846 61 259 2.0 4.0 0.00 0.00 0.00 63 1014.6
20260905081744 61 267 2.0 4.0 0.00 0.00 0.00 63 1014.6
20260905081701 61 267 2.0 4.0 0.00 0.00 0.00 63 1014.6
20260905081638 61 264 2.0 4.0 0.00 0.00 0.00 63 1014.7
20260905081615 61 292 2.0 4.0 0.00 0.00 0.00 63 1014.6
20260905081552 61 253 2.0 4.0 0.00 0.00 0.00 63 1014.6
20260905081515 61 268 2.0 4.0 0.00 0.00 0.00 63 1014.6
20260905081453 61 269 2.0 4.0 0.00 0.00 0.00 63 1014.6
20260905081431 61 261 1.0 4.0 0.00 0.00 0.00 63 1014.5
20260905081410 61 279 2.0 4.0 0.00 0.00 0.00 63 1014.5
20260905081348 61 259 1.0 4.0 0.00 0.00 0.00 63 1014.5
20260905081312 61 292 1.0 4.0 0.00 0.00 0.00 63 1014.5
20260905081023 61 278 2.0 4.0 0.00 0.00 0.00 63 1014.5
20260905080133 61 278 1.0 4.0 0.00 0.00 0.00 63 1014.5
20260905080033 61 315 1.0 4.0 0.00 0.00 0.00 63 1014.5
20260905075933 61 296 1.0 4.0 0.00 0.00 0.00 63 1014.5
20260905075840 61 250 1.0 5.0 0.00 0.00 0.00 63 1014.5
20260905075732 61 290 1.0 5.0 0.00 0.00 0.00 63 1014.5
20260905075630 61 290 2.0 5.0 0.00 0.00 0.00 63 1014.5
20260905075531 61 302 2.0 5.0 0.00 0.00 0.00 63 1014.5
20260905075429 61 260 2.0 7.0 0.00 0.00 0.00 63 1014.5
20260905075339 61 294 2.0 7.0 0.00 0.00 0.00 63 1014.5
20260905075235 61 293 2.0 7.0 0.00 0.00 0.00 63 1014.4
20260905075134 61 284 3.0 7.0 0.00 0.00 0.00 63 1014.4
20260905075030 61 279 3.0 7.0 0.00 0.00 0.00 63 1014.4
20260905074930 61 277 2.0 7.0 0.00 0.00 0.00 63 1014.4
20260905074838 61 284 2.0 7.0 0.00 0.00 0.00 63 1014.4
20260905074730 61 262 2.0 7.0 0.00 0.00 0.00 63 1014.3
20260905074629 61 325 3.0 7.0 0.00 0.00 0.00 63 1014.3
20260905074529 61 281 3.0 7.0 0.00 0.00 0.00 63 1014.4
20260905074429 61 314 2.0 6.0 0.00 0.00 0.00 63 1014.3
20260905074336 61 281 2.0 6.0 0.00 0.00 0.00 63 1014.3
20260905074230 61 288 2.0 6.0 0.00 0.00 0.00 63 1014.3
20260905074206 61 282 2.0 6.0 0.00 0.00 0.00 63 1014.3
20260905074144 61 273 2.0 6.0 0.00 0.00 0.00 63 1014.3
20260905074123 61 254 2.0 6.0 0.00 0.00 0.00 63 1014.2
20260905074100 61 285 2.0 6.0 0.00 0.00 0.00 63 1014.2
20260905073753 61 297 3.0 6.0 0.00 0.00 0.00 63 1014.3
20260905073734 61 285 3.0 6.0 0.00 0.00 0.00 63 1014.2
20260905073439 61 290 2.0 4.0 0.00 0.00 0.00 63 1014.2
20260905073402 61 290 2.0 4.0 0.00 0.00 0.00 63 1014.1
20260905073029 61 325 2.0 7.0 0.00 0.00 0.00 63 1014.2
20260905072931 61 299 2.0 7.0 0.00 0.00 0.00 63 1014.1
20260905072824 61 309 2.0 7.0 0.00 0.00 0.00 63 1014.1
20260905072735 61 291 2.0 7.0 0.00 0.00 0.00 63 1014.1
20260905072712 61 301 2.0 7.0 0.00 0.00 0.00 63 1014.1
20260905072650 61 288 2.0 7.0 0.00 0.00 0.00 63 1014.1
20260905072323 61 277 3.0 7.0 0.00 0.00 0.00 63 1014.1
20260905072220 61 291 4.0 7.0 0.00 0.00 0.00 63 1014.1
20260905072120 61 331 4.0 7.0 0.00 0.00 0.00 63 1014.2
20260905072019 61 334 4.0 7.0 0.00 0.00 0.00 63 1014.2
20260905071918 61 281 2.0 7.0 0.00 0.00 0.00 63 1014.2
20260905071822 61 338 2.0 7.0 0.00 0.00 0.00 63 1014.1
20260905071718 61 261 2.0 7.0 0.00 0.00 0.00 63 1014.2
20260905071612 61 265 3.0 7.0 0.00 0.00 0.00 63 1014.2
20260905071510 61 261 3.0 7.0 0.00 0.00 0.00 63 1014.2
20260905071409 61 292 2.0 7.0 0.00 0.00 0.00 63 1014.1
20260905071316 61 281 1.0 7.0 0.00 0.00 0.00 63 1014.2
20260905071211 61 298 2.0 7.0 0.00 0.00 0.00 62 1014.1
20260905071109 61 326 2.0 7.0 0.00 0.00 0.00 62 1014.1
20260905071009 61 284 4.0 7.0 0.00 0.00 0.00 62 1014.1
20260905070908 61 299 3.0 7.0 0.00 0.00 0.00 62 1014.1
20260905070815 61 292 2.0 7.0 0.00 0.00 0.00 62 1014.1
20260905070707 61 293 2.0 7.0 0.00 0.00 0.00 62 1014.0
20260905070607 61 278 4.0 7.0 0.00 0.00 0.00 62 1014.1
20260905070505 61 291 2.0 7.0 0.00 0.00 0.00 62 1014.0
20260905070405 61 281 2.0 5.0 0.00 0.00 0.00 62 1014.0
20260905070315 61 281 2.0 5.0 0.00 0.00 0.00 62 1014.0
20260905070205 61 296 2.0 5.0 0.00 0.00 0.00 62 1014.0
20260905070104 61 310 3.0 6.0 0.00 0.00 0.00 62 1014.0
20260905070001 61 256 2.0 6.0 0.00 0.00 0.00 62 1014.0
20260905065902 61 330 2.0 6.0 0.00 0.00 0.00 62 1014.0
20260905065812 61 296 2.0 6.0 0.00 0.00 0.00 63 1013.9
20260905065702 61 275 2.0 6.0 0.00 0.00 0.00 63 1014.0
20260905065601 61 303 3.0 6.0 0.00 0.00 0.00 63 1013.9
20260905065530 61 263 2.0 7.0 0.00 0.00 0.00 63 1013.9
20260905065509 61 296 2.0 7.0 0.00 0.00 0.00 63 1013.9
20260905065447 61 309 2.0 7.0 0.00 0.00 0.00 63 1013.9
20260905065100 61 273 2.0 7.0 0.00 0.00 0.00 63 1013.9
20260905065001 61 277 3.0 7.0 0.00 0.00 0.00 63 1013.9
20260905064901 61 265 2.0 7.0 0.00 0.00 0.00 63 1013.9
20260905064807 61 271 2.0 7.0 0.00 0.00 0.00 63 1013.9
20260905064701 61 285 3.0 7.0 0.00 0.00 0.00 63 1013.8
20260905064601 61 274 2.0 7.0 0.00 0.00 0.00 63 1013.8
20260905064537 61 297 2.0 7.0 0.00 0.00 0.00 63 1013.8
20260905064511 61 246 3.0 7.0 0.00 0.00 0.00 63 1013.9
20260905064449 61 282 2.0 7.0 0.00 0.00 0.00 63 1013.8
20260905064101 61 267 2.0 6.0 0.00 0.00 0.00 64 1013.8
20260905064001 61 286 2.0 7.0 0.00 0.00 0.00 64 1013.8
20260905063853 61 287 3.0 8.0 0.00 0.00 0.00 64 1013.8
20260905063801 61 265 3.0 8.0 0.00 0.00 0.00 64 1013.8
20260905063653 61 245 3.0 8.0 0.00 0.00 0.00 64 1013.8
20260905063552 61 261 3.0 8.0 0.00 0.00 0.00 64 1013.7
20260905063522 61 273 2.0 8.0 0.00 0.00 0.00 64 1013.8
20260905063459 61 275 2.0 8.0 0.00 0.00 0.00 64 1013.8
20260905063439 61 246 3.0 8.0 0.00 0.00 0.00 64 1013.8
20260905063049 61 321 3.0 8.0 0.00 0.00 0.00 64 1013.7
20260905062948 61 290 3.0 8.0 0.00 0.00 0.00 64 1013.7
20260905062916 61 285 2.0 4.0 0.00 0.00 0.00 64 1013.7
20260905062854 61 271 2.0 4.0 0.00 0.00 0.00 64 1013.8
20260905062818 61 272 2.0 4.0 0.00 0.00 0.00 64 1013.8
20260905062447 61 275 2.0 4.0 0.00 0.00 0.00 64 1013.8
20260905062346 61 267 2.0 4.0 0.00 0.00 0.00 64 1013.8
20260905062254 61 256 1.0 4.0 0.00 0.00 0.00 64 1013.8
20260905062145 61 257 0.0 3.0 0.00 0.00 0.00 64 1013.8
20260905062045 61 253 0.0 3.0 0.00 0.00 0.00 64 1013.8
20260905061945 61 262 1.0 4.0 0.00 0.00 0.00 64 1013.8
20260905061838 61 263 1.0 4.0 0.00 0.00 0.00 64 1013.8
20260905061749 61 251 1.0 4.0 0.00 0.00 0.00 64 1013.8
20260905061647 61 261 2.0 4.0 0.00 0.00 0.00 64 1013.7
20260905061627 61 267 2.0 4.0 0.00 0.00 0.00 64 1013.7
20260905061605 61 242 2.0 4.0 0.00 0.00 0.00 64 1013.7
20260905061248 61 244 2.0 4.0 0.00 0.00 0.00 64 1013.7
20260905061133 61 261 2.0 5.0 0.00 0.00 0.00 64 1013.6
20260905061033 61 257 2.0 6.0 0.00 0.00 0.00 64 1013.6
20260905060929 61 263 2.0 6.0 0.00 0.00 0.00 64 1013.5
20260905060830 61 265 2.0 6.0 0.00 0.00 0.00 64 1013.6
20260905060729 61 265 2.0 6.0 0.00 0.00 0.00 64 1013.6
20260905060632 61 269 2.0 6.0 0.00 0.00 0.00 64 1013.5
20260905060601 61 259 2.0 6.0 0.00 0.00 0.00 64 1013.5
20260905060536 61 261 3.0 6.0 0.00 0.00 0.00 64 1013.5
20260905060515 61 268 3.0 6.0 0.00 0.00 0.00 64 1013.5
20260905060126 61 287 3.0 6.0 0.00 0.00 0.00 64 1013.5
20260905060039 61 278 2.0 6.0 0.00 0.00 0.00 63 1013.5
20260905060019 61 246 3.0 6.0 0.00 0.00 0.00 63 1013.4
20260905055943 61 263 3.0 6.0 0.00 0.00 0.00 63 1013.4
20260905055651 62 252 2.0 6.0 0.00 0.00 0.00 63 1013.5
20260905055350 62 267 2.0 6.0 0.00 0.00 0.00 63 1013.4
20260905055309 62 259 2.0 6.0 0.00 0.00 0.00 63 1013.5
20260905055250 62 294 3.0 6.0 0.00 0.00 0.00 62 1013.5
20260905054917 62 264 2.0 4.0 0.00 0.00 0.00 62 1013.5
20260905054815 62 255 2.0 4.0 0.00 0.00 0.00 62 1013.5
20260905054715 62 278 2.0 4.0 0.00 0.00 0.00 62 1013.5
20260905054614 62 260 2.0 4.0 0.00 0.00 0.00 62 1013.4
20260905054514 62 259 2.0 4.0 0.00 0.00 0.00 62 1013.4
20260905054412 62 275 2.0 4.0 0.00 0.00 0.00 62 1013.5
20260905054313 62 268 2.0 4.0 0.00 0.00 0.00 61 1013.5
20260905054211 62 267 2.0 4.0 0.00 0.00 0.00 61 1013.6
20260905054113 62 273 2.0 4.0 0.00 0.00 0.00 61 1013.6
20260905054009 62 270 3.0 4.0 0.00 0.00 0.00 61 1013.5
20260905053909 62 266 2.0 4.0 0.00 0.00 0.00 61 1013.5
20260905053807 62 252 3.0 4.0 0.00 0.00 0.00 60 1013.5
20260905053711 62 254 3.0 4.0 0.00 0.00 0.00 60 1013.5
20260905053647 62 264 3.0 4.0 0.00 0.00 0.00 60 1013.5
20260905053625 63 262 3.0 4.0 0.00 0.00 0.00 60 1013.5
20260905053603 63 266 3.0 4.0 0.00 0.00 0.00 60 1013.5
20260905053542 63 250 2.0 4.0 0.00 0.00 0.00 60 1013.5
20260905053233 63 260 3.0 4.0 0.00 0.00 0.00 60 1013.5
20260905052903 63 242 2.0 4.0 0.00 0.00 0.00 60 1013.4
20260905052801 63 259 2.0 4.0 0.00 0.00 0.00 60 1013.5
20260905052702 63 264 2.0 4.0 0.00 0.00 0.00 60 1013.4
20260905052601 63 273 2.0 4.0 0.00 0.00 0.00 60 1013.4
20260905052505 63 247 2.0 4.0 0.00 0.00 0.00 60 1013.4
20260905052404 63 259 1.0 4.0 0.00 0.00 0.00 60 1013.4
20260905052306 63 281 1.0 4.0 0.00 0.00 0.00 60 1013.4
20260905052202 63 271 1.0 4.0 0.00 0.00 0.00 60 1013.4
20260905052139 63 266 0.0 4.0 0.00 0.00 0.00 60 1013.3
20260905052115 63 278 0.0 4.0 0.00 0.00 0.00 60 1013.3
20260905052055 63 279 0.0 6.0 0.00 0.00 0.00 60 1013.3
20260905052034 63 279 0.0 6.0 0.00 0.00 0.00 59 1013.3
20260905051959 63 279 1.0 6.0 0.00 0.00 0.00 60 1013.3
20260905051411 63 277 2.0 6.0 0.00 0.00 0.00 59 1013.4
20260905051351 63 281 2.0 6.0 0.00 0.00 0.00 59 1013.4
20260905051313 63 283 2.0 6.0 0.00 0.00 0.00 59 1013.4
20260905051251 63 271 2.0 6.0 0.00 0.00 0.00 59 1013.4
20260905051230 63 304 2.0 6.0 0.00 0.00 0.00 59 1013.4
20260905051210 63 267 2.0 4.0 0.00 0.00 0.00 59 1013.5
20260905051148 64 295 2.0 4.0 0.00 0.00 0.00 59 1013.5
20260905051116 64 271 1.0 4.0 0.00 0.00 0.00 59 1013.5
20260905051049 64 271 2.0 4.0 0.00 0.00 0.00 59 1013.5
20260905051030 64 296 2.0 4.0 0.00 0.00 0.00 59 1013.5
20260905051009 64 273 2.0 4.0 0.00 0.00 0.00 59 1013.5
20260905050714 64 315 2.0 4.0 0.00 0.00 0.00 59 1013.5
20260905050138 64 349 1.0 4.0 0.00 0.00 0.00 58 1013.6
20260905050116 64 292 1.0 4.0 0.00 0.00 0.00 58 1013.6
20260905045504 64 290 2.0 7.0 0.00 0.00 0.00 58 1013.6
20260905045401 64 294 2.0 7.0 0.00 0.00 0.00 58 1013.6
20260905045305 64 277 2.0 7.0 0.00 0.00 0.00 58 1013.6
20260905045211 64 279 2.0 7.0 0.00 0.00 0.00 57 1013.6
20260905045101 64 309 2.0 7.0 0.00 0.00 0.00 57 1013.6
20260905045001 64 292 3.0 7.0 0.00 0.00 0.00 57 1013.6
20260905044901 65 283 4.0 7.0 0.00 0.00 0.00 57 1013.5
20260905044802 65 301 3.0 7.0 0.00 0.00 0.00 56 1013.5
20260905044731 65 238 3.0 6.0 0.00 0.00 0.00 56 1013.5
20260905044652 65 267 3.0 6.0 0.00 0.00 0.00 55 1013.5
20260905044632 65 257 2.0 6.0 0.00 0.00 0.00 55 1013.4
20260905044300 65 277 2.0 4.0 0.00 0.00 0.00 55 1013.4
20260905044224 65 291 1.0 4.0 0.00 0.00 0.00 54 1013.3
20260905044146 65 246 2.0 3.0 0.00 0.00 0.00 54 1013.3
20260905044125 65 265 2.0 3.0 0.00 0.00 0.00 54 1013.3
20260905043753 65 257 2.0 3.0 0.00 0.00 0.00 54 1013.2
20260905043703 65 254 1.0 3.0 0.00 0.00 0.00 53 1013.2
20260905043602 65 301 1.0 3.0 0.00 0.00 0.00 53 1013.2
20260905043539 65 280 1.0 3.0 0.00 0.00 0.00 53 1013.2
20260905043516 65 284 1.0 3.0 0.00 0.00 0.00 53 1013.2
20260905043453 65 288 1.0 3.0 0.00 0.00 0.00 52 1013.2
20260905043414 65 275 0.0 3.0 0.00 0.00 0.00 52 1013.2
20260905043358 65 296 0.0 3.0 0.00 0.00 0.00 52 1013.2
20260905043336 65 305 1.0 3.0 0.00 0.00 0.00 52 1013.2
20260905043317 65 305 1.0 3.0 0.00 0.00 0.00 52 1013.2
20260905043251 65 310 1.0 3.0 0.00 0.00 0.00 52 1013.2
20260905042947 65 286 1.0 3.0 0.00 0.00 0.00 52 1013.2
20260905042930 65 312 1.0 3.0 0.00 0.00 0.00 52 1013.2
20260905042634 65 305 1.0 2.0 0.00 0.00 0.00 52 1013.3
20260905042328 65 319 1.0 2.0 0.00 0.00 0.00 52 1013.2
20260905041729 65 299 0.0 2.0 0.00 0.00 0.00 51 1013.3
20260905041630 65 296 0.0 2.0 0.00 0.00 0.00 51 1013.3
20260905041529 65 292 0.0 2.0 0.00 0.00 0.00 51 1013.3
20260905041429 65 292 0.0 2.0 0.00 0.00 0.00 52 1013.3
20260905041330 65 293 0.0 2.0 0.00 0.00 0.00 52 1013.3
20260905041227 65 293 1.0 2.0 0.00 0.00 0.00 52 1013.3
20260905041128 65 293 1.0 2.0 0.00 0.00 0.00 52 1013.3
20260905041026 65 308 1.0 2.0 0.00 0.00 0.00 52 1013.3
20260905040928 65 70 0.0 1.0 0.00 0.00 0.00 53 1013.3
20260905040843 65 70 0.0 1.0 0.00 0.00 0.00 53 1013.3
20260905040819 65 70 0.0 1.0 0.00 0.00 0.00 53 1013.2
20260905040745 65 70 0.0 1.0 0.00 0.00 0.00 53 1013.2
20260905040725 65 70 0.0 1.0 0.00 0.00 0.00 53 1013.2
20260905040703 65 70 0.0 1.0 0.00 0.00 0.00 53 1013.2
20260905040022 65 70 0.0 1.0 0.00 0.00 0.00 53 1013.2
20260905040002 65 70 0.0 1.0 0.00 0.00 0.00 53 1013.1
20260905035943 65 70 0.0 1.0 0.00 0.00 0.00 52 1013.1
20260905035922 65 70 0.0 1.0 0.00 0.00 0.00 52 1013.2
20260905035849 66 70 0.0 1.0 0.00 0.00 0.00 52 1013.1
20260905035826 66 70 0.0 1.0 0.00 0.00 0.00 52 1013.1
20260905035538 66 70 0.0 1.0 0.00 0.00 0.00 51 1013.1
20260905035516 66 70 0.0 1.0 0.00 0.00 0.00 51 1013.1
20260905034901 66 70 0.0 1.0 0.00 0.00 0.00 52 1013.1
20260905034802 66 70 0.0 1.0 0.00 0.00 0.00 51 1013.1
20260905034700 66 70 0.0 1.0 0.00 0.00 0.00 51 1013.1
20260905034603 66 70 0.0 1.0 0.00 0.00 0.00 51 1013.1
20260905034507 66 70 0.0 1.0 0.00 0.00 0.00 51 1013.1
20260905034444 66 69 0.0 1.0 0.00 0.00 0.00 50 1013.1
20260905034420 66 65 0.0 1.0 0.00 0.00 0.00 51 1013.1
20260905034400 66 62 0.0 1.0 0.00 0.00 0.00 51 1013.1
20260905034052 66 34 0.0 1.0 0.00 0.00 0.00 51 1013.1
20260905034032 66 34 0.0 1.0 0.00 0.00 0.00 51 1013.0
20260905033703 66 34 0.0 1.0 0.00 0.00 0.00 50 1013.1
20260905033603 66 34 0.0 1.0 0.00 0.00 0.00 50 1013.0
20260905033503 66 34 0.0 1.0 0.00 0.00 0.00 49 1013.0
20260905033442 66 34 0.0 1.0 0.00 0.00 0.00 49 1013.0
20260905033421 66 34 0.0 1.0 0.00 0.00 0.00 49 1013.0
20260905033403 67 34 0.0 1.0 0.00 0.00 0.00 48 1013.0
20260905033053 67 34 0.0 1.0 0.00 0.00 0.00 48 1013.0
20260905033033 67 34 0.0 1.0 0.00 0.00 0.00 48 1012.9
20260905032703 67 34 0.0 1.0 0.00 0.00 0.00 48 1012.9
20260905032603 67 34 0.0 1.0 0.00 0.00 0.00 48 1012.9
20260905032501 67 34 0.0 1.0 0.00 0.00 0.00 48 1013.0
20260905032402 67 34 0.0 1.0 0.00 0.00 0.00 50 1012.9
20260905032300 67 34 0.0 1.0 0.00 0.00 0.00 50 1012.9
20260905032205 67 34 0.0 1.0 0.00 0.00 0.00 49 1012.9
20260905032102 67 34 0.0 1.0 0.00 0.00 0.00 48 1012.9
20260905032001 67 34 0.0 1.0 0.00 0.00 0.00 47 1012.9
20260905031925 67 34 0.0 1.0 0.00 0.00 0.00 47 1012.9
20260905031903 67 34 0.0 1.0 0.00 0.00 0.00 47 1012.9
20260905031843 67 34 0.0 0.0 0.00 0.00 0.00 47 1012.9
20260905031501 68 34 0.0 0.0 0.00 0.00 0.00 46 1012.8
20260905031402 68 34 0.0 0.0 0.00 0.00 0.00 45 1012.8
20260905031302 68 34 0.0 0.0 0.00 0.00 0.00 45 1012.9
20260905031203 68 34 0.0 0.0 0.00 0.00 0.00 45 1012.9
20260905031102 68 34 0.0 0.0 0.00 0.00 0.00 45 1012.8
20260905031003 68 34 0.0 0.0 0.00 0.00 0.00 46 1012.9
20260905030903 68 34 0.0 0.0 0.00 0.00 0.00 46 1012.8
20260905030801 68 34 0.0 0.0 0.00 0.00 0.00 45 1012.8
20260905030702 68 34 0.0 0.0 0.00 0.00 0.00 45 1012.8
20260905030602 68 34 0.0 0.0 0.00 0.00 0.00 45 1012.7
20260905030520 68 34 0.0 0.0 0.00 0.00 0.00 45 1012.7
20260905030500 68 34 0.0 0.0 0.00 0.00 0.00 44 1012.8
20260905030438 68 34 0.0 0.0 0.00 0.00 0.00 44 1012.8
20260905030419 69 34 0.0 0.0 0.00 0.00 0.00 44 1012.8
20260905030341 69 34 0.0 0.0 0.00 0.00 0.00 43 1012.8
20260905030321 69 34 0.0 0.0 0.00 0.00 0.00 43 1012.8
20260905030301 69 34 0.0 0.0 0.00 0.00 0.00 42 1012.7
20260905025747 69 34 0.0 0.0 0.00 0.00 0.00 43 1012.8
20260905025429 69 34 0.0 0.0 0.00 0.00 0.00 43 1012.7
20260905025406 69 34 0.0 1.0 0.00 0.00 0.00 43 1012.7
20260905025347 69 34 0.0 1.0 0.00 0.00 0.00 42 1012.7
20260905025002 69 34 0.0 1.0 0.00 0.00 0.00 43 1012.7
20260905024901 69 34 0.0 1.0 0.00 0.00 0.00 40 1012.7
20260905024801 69 34 0.0 1.0 0.00 0.00 0.00 40 1012.7
20260905024704 69 34 0.0 1.0 0.00 0.00 0.00 40 1012.8
20260905024644 69 34 0.0 1.0 0.00 0.00 0.00 40 1012.7
20260905024607 70 34 0.0 1.0 0.00 0.00 0.00 40 1012.8
20260905024547 70 34 0.0 1.0 0.00 0.00 0.00 39 1012.7
20260905024527 70 34 0.0 1.0 0.00 0.00 0.00 39 1012.7
20260905024219 70 34 0.0 0.0 0.00 0.00 0.00 39 1012.7
20260905023928 70 34 0.0 0.0 0.00 0.00 0.00 39 1012.7
20260905023908 70 34 0.0 1.0 0.00 0.00 0.00 38 1012.7
20260905023847 70 34 0.0 2.0 0.00 0.00 0.00 39 1012.7
20260905023812 70 34 0.0 2.0 0.00 0.00 0.00 38 1012.7
20260905023751 70 34 0.0 2.0 0.00 0.00 0.00 38 1012.7
20260905023731 70 34 0.0 2.0 0.00 0.00 0.00 38 1012.7
20260905023711 71 34 0.0 2.0 0.00 0.00 0.00 38 1012.7
20260905023653 71 34 0.0 2.0 0.00 0.00 0.00 38 1012.7
20260905023617 71 34 0.0 2.0 0.00 0.00 0.00 38 1012.7
20260905023326 71 34 1.0 2.0 0.00 0.00 0.00 37 1012.7
20260905023306 71 43 0.0 2.0 0.00 0.00 0.00 38 1012.7
20260905023245 71 15 0.0 1.0 0.00 0.00 0.00 38 1012.7
20260905022444 71 15 0.0 2.0 0.00 0.00 0.00 37 1012.8
20260905022139 71 15 0.0 2.0 0.00 0.00 0.00 37 1012.8
20260905021831 72 15 0.0 2.0 0.00 0.00 0.00 38 1012.8
20260905021807 72 15 0.0 2.0 0.00 0.00 0.00 38 1012.7
20260905021746 72 15 0.0 2.0 0.00 0.00 0.00 38 1012.7
20260905021415 72 20 0.0 1.0 0.00 0.00 0.00 38 1012.7
20260905021354 72 20 0.0 1.0 0.00 0.00 0.00 37 1012.7
20260905021335 72 20 0.0 2.0 0.00 0.00 0.00 37 1012.7
20260905021002 72 20 0.0 2.0 0.00 0.00 0.00 37 1012.7
20260905020901 72 20 0.0 2.0 0.00 0.00 0.00 37 1012.7
20260905020801 73 20 0.0 2.0 0.00 0.00 0.00 37 1012.7
20260905020721 73 20 0.0 2.0 0.00 0.00 0.00 36 1012.7
20260905020701 73 20 0.0 2.0 0.00 0.00 0.00 36 1012.7
20260905020624 73 20 0.0 2.0 0.00 0.00 0.00 36 1012.6
20260905020605 73 20 1.0 2.0 0.00 0.00 0.00 35 1012.7
20260905020540 73 20 1.0 2.0 0.00 0.00 0.00 35 1012.7
20260905020518 73 21 0.0 2.0 0.00 0.00 0.00 35 1012.6
20260905015901 73 21 0.0 3.0 0.00 0.00 0.00 35 1012.6
20260905015829 73 21 0.0 3.0 0.00 0.00 0.00 36 1012.7
20260905015807 73 21 1.0 3.0 0.00 0.00 0.00 36 1012.7
20260905015750 73 21 1.0 3.0 0.00 0.00 0.00 35 1012.7
20260905015441 74 28 1.0 3.0 0.00 0.00 0.00 35 1012.7
20260905015420 74 5 1.0 3.0 0.00 0.00 0.00 35 1012.7
20260905015400 74 15 1.0 3.0 0.00 0.00 0.00 35 1012.6
20260905015051 74 30 1.0 2.0 0.00 0.00 0.00 34 1012.7
20260905015030 74 44 1.0 2.0 0.00 0.00 0.00 33 1012.7
20260905014725 74 45 0.0 2.0 0.00 0.00 0.00 33 1012.6
20260905014704 74 22 0.0 2.0 0.00 0.00 0.00 34 1012.6
20260905014630 74 22 0.0 2.0 0.00 0.00 0.00 33 1012.6
20260905014340 74 22 0.0 2.0 0.00 0.00 0.00 33 1012.6
20260905014318 74 13 0.0 3.0 0.00 0.00 0.00 33 1012.6
20260905014255 74 13 0.0 3.0 0.00 0.00 0.00 33 1012.6
20260905014222 74 13 0.0 3.0 0.00 0.00 0.00 33 1012.5
20260905013931 75 13 0.0 3.0 0.00 0.00 0.00 32 1012.6
20260905013602 74 13 1.0 3.0 0.00 0.00 0.00 31 1012.5
20260905013502 75 14 1.0 3.0 0.00 0.00 0.00 32 1012.5
20260905013418 75 21 1.0 3.0 0.00 0.00 0.00 31 1012.5
20260905013355 75 55 0.0 3.0 0.00 0.00 0.00 32 1012.5
20260905013332 75 9 0.0 3.0 0.00 0.00 0.00 32 1012.5
20260905013310 75 9 0.0 3.0 0.00 0.00 0.00 32 1012.5
20260905013236 74 9 1.0 3.0 0.00 0.00 0.00 32 1012.5
20260905013213 75 9 2.0 3.0 0.00 0.00 0.00 31 1012.5
20260905013154 75 11 2.0 3.0 0.00 0.00 0.00 31 1012.5
20260905012903 75 338 1.0 3.0 0.00 0.00 0.00 31 1012.5
20260905012825 75 0 1.0 3.0 0.00 0.00 0.00 32 1012.4
20260905012534 75 0 1.0 3.0 0.00 0.00 0.00 31 1012.4
20260905012515 75 352 0.0 3.0 0.00 0.00 0.00 31 1012.5
20260905011859 75 314 1.0 3.0 0.00 0.00 0.00 32 1012.4
20260905011751 75 314 1.0 3.0 0.00 0.00 0.00 32 1012.4
20260905011651 74 314 0.0 3.0 0.00 0.00 0.00 33 1012.4
20260905011619 74 332 0.0 3.0 0.00 0.00 0.00 33 1012.4
20260905011546 74 331 1.0 3.0 0.00 0.00 0.00 33 1012.3
20260905011524 74 331 1.0 3.0 0.00 0.00 0.00 33 1012.3
20260905011506 74 296 1.0 3.0 0.00 0.00 0.00 32 1012.3
20260905011445 74 320 2.0 3.0 0.00 0.00 0.00 32 1012.3
20260905011420 74 5 2.0 3.0 0.00 0.00 0.00 32 1012.3
20260905011348 74 344 1.0 3.0 0.00 0.00 0.00 32 1012.3
20260905010824 74 33 1.0 3.0 0.00 0.00 0.00 34 1012.3
20260905010803 74 32 1.0 3.0 0.00 0.00 0.00 33 1012.3
20260905010727 74 26 1.0 3.0 0.00 0.00 0.00 32 1012.4
20260905010129 74 352 1.0 4.0 0.00 0.00 0.00 34 1012.3
20260905010034 74 16 1.0 4.0 0.00 0.00 0.00 34 1012.3
20260905005929 74 0 2.0 4.0 0.00 0.00 0.00 33 1012.4
20260905005832 74 5 1.0 4.0 0.00 0.00 0.00 32 1012.4
20260905005730 74 5 1.0 4.0 0.00 0.00 0.00 33 1012.4
20260905005653 74 20 2.0 4.0 0.00 0.00 0.00 32 1012.4
20260905005631 74 44 2.0 5.0 0.00 0.00 0.00 33 1012.4
20260905005556 74 344 2.0 5.0 0.00 0.00 0.00 33 1012.4
20260905005225 74 19 1.0 5.0 0.00 0.00 0.00 33 1012.3
20260905005125 74 57 1.0 5.0 0.00 0.00 0.00 33 1012.4
20260905005029 74 41 1.0 5.0 0.00 0.00 0.00 34 1012.3
20260905004926 74 43 1.0 5.0 0.00 0.00 0.00 35 1012.3
20260905004824 74 19 1.0 5.0 0.00 0.00 0.00 35 1012.3
20260905004718 74 19 2.0 5.0 0.00 0.00 0.00 35 1012.3
20260905004642 74 36 3.0 5.0 0.00 0.00 0.00 34 1012.3
20260905004617 74 79 2.0 5.0 0.00 0.00 0.00 34 1012.2
20260905004543 74 352 2.0 5.0 0.00 0.00 0.00 34 1012.3
20260905004211 74 304 2.0 5.0 0.00 0.00 0.00 35 1012.2
20260905004112 74 286 1.0 5.0 0.00 0.00 0.00 35 1012.2
20260905004017 74 294 1.0 6.0 0.00 0.00 0.00 34 1012.2
20260905003909 74 146 1.0 6.0 0.00 0.00 0.00 33 1012.2
20260905003828 74 102 2.0 6.0 0.00 0.00 0.00 35 1012.2
20260905003806 74 0 3.0 6.0 0.00 0.00 0.00 34 1012.2
20260905003745 74 96 3.0 6.0 0.00 0.00 0.00 33 1012.3
20260905003405 75 22 1.0 6.0 0.00 0.00 0.00 33 1012.2
20260905003305 75 80 2.0 6.0 0.00 0.00 0.00 33 1012.2
20260905003203 75 64 4.0 6.0 0.00 0.00 0.00 33 1012.3
20260905003131 75 59 3.0 6.0 0.00 0.00 0.00 33 1012.2
20260905003107 75 348 1.0 4.0 0.00 0.00 0.00 33 1012.2
20260905003034 75 0 0.0 4.0 0.00 0.00 0.00 32 1012.3
20260905002705 74 170 2.0 6.0 0.00 0.00 0.00 31 1012.2
20260905002601 74 196 1.0 6.0 0.00 0.00 0.00 31 1012.2
20260905002511 74 109 1.0 6.0 0.00 0.00 0.00 31 1012.2
20260905002354 74 86 0.0 6.0 0.00 0.00 0.00 31 1012.2
20260905002254 74 25 2.0 6.0 0.00 0.00 0.00 32 1012.2
20260905002156 74 0 2.0 6.0 0.00 0.00 0.00 31 1012.2
20260905002054 74 352 1.0 6.0 0.00 0.00 0.00 32 1012.2
20260905001952 74 53 2.0 6.0 0.00 0.00 0.00 32 1012.2
20260905001846 74 61 2.0 6.0 0.00 0.00 0.00 32 1012.2
20260905001745 74 65 1.0 6.0 0.00 0.00 0.00 34 1012.2
20260905001644 74 340 2.0 5.0 0.00 0.00 0.00 33 1012.2
20260905001545 74 332 3.0 5.0 0.00 0.00 0.00 33 1012.2
20260905001443 74 338 3.0 5.0 0.00 0.00 0.00 33 1012.2
20260905001405 74 17 1.0 5.0 0.00 0.00 0.00 33 1012.2
20260905001343 74 28 1.0 5.0 0.00 0.00 0.00 33 1012.1
20260905001323 74 59 2.0 6.0 0.00 0.00 0.00 32 1012.2
20260905001259 74 331 2.0 6.0 0.00 0.00 0.00 32 1012.2
20260905001228 74 9 1.0 6.0 0.00 0.00 0.00 34 1012.2
20260905001205 74 65 1.0 6.0 0.00 0.00 0.00 34 1012.2
20260905000915 74 32 2.0 6.0 0.00 0.00 0.00 35 1012.2
20260905000852 74 34 2.0 6.0 0.00 0.00 0.00 34 1012.2
20260905000241 74 11 2.0 6.0 0.00 0.00 0.00 35 1012.3
20260905000204 74 132 2.0 6.0 0.00 0.00 0.00 33 1012.3
20260905000138 74 62 2.0 6.0 0.00 0.00 0.00 33 1012.3
20260905000104 74 81 2.0 6.0 0.00 0.00 0.00 33 1012.3
20260904235735 74 126 2.0 6.0 0.00 0.00 0.00 33 1012.3
20260904235700 74 77 2.0 6.0 0.00 0.00 0.00 33 1012.3
20260904235638 74 132 3.0 6.0 0.00 0.00 0.00 33 1012.4
20260904235603 74 96 4.0 6.0 0.00 0.00 0.00 32 1012.4
20260904235542 74 90 3.0 6.0 0.00 0.00 0.00 34 1012.4
20260904235520 74 101 2.0 6.0 0.00 0.00 0.00 33 1012.4
20260904235457 75 121 2.0 5.0 0.00 0.00 0.00 33 1012.4
20260904235157 75 92 2.0 5.0 0.00 0.00 0.00 34 1012.4
20260904234908 75 104 1.0 5.0 0.00 0.00 0.00 36 1012.4
20260904234848 74 41 2.0 5.0 0.00 0.00 0.00 36 1012.4
20260904234826 75 161 2.0 5.0 0.00 0.00 0.00 35 1012.4
20260904234522 74 9 1.0 7.0 0.00 0.00 0.00 36 1012.3
20260904234227 74 86 2.0 7.0 0.00 0.00 0.00 36 1012.3
20260904234205 74 46 2.0 7.0 0.00 0.00 0.00 36 1012.3
20260904233822 74 51 2.0 7.0 0.00 0.00 0.00 36 1012.3
20260904233722 74 304 2.0 7.0 0.00 0.00 0.00 37 1012.3
20260904233622 74 90 3.0 7.0 0.00 0.00 0.00 37 1012.3
20260904233515 74 74 4.0 7.0 0.00 0.00 0.00 36 1012.3
20260904233415 74 86 4.0 7.0 0.00 0.00 0.00 35 1012.3
20260904233314 74 65 2.0 5.0 0.00 0.00 0.00 35 1012.3
20260904233213 74 60 2.0 4.0 0.00 0.00 0.00 36 1012.3
20260904233113 74 63 3.0 4.0 0.00 0.00 0.00 37 1012.3
20260904233013 74 66 3.0 4.0 0.00 0.00 0.00 36 1012.3
20260904232924 74 84 2.0 5.0 0.00 0.00 0.00 36 1012.3
20260904232901 74 98 1.0 5.0 0.00 0.00 0.00 35 1012.3
20260904232841 74 122 2.0 5.0 0.00 0.00 0.00 34 1012.3
20260904232511 74 130 2.0 6.0 0.00 0.00 0.00 35 1012.4
20260904232408 74 160 2.0 6.0 0.00 0.00 0.00 36 1012.4
20260904232308 74 99 2.0 6.0 0.00 0.00 0.00 37 1012.3
20260904232207 74 111 2.0 6.0 0.00 0.00 0.00 36 1012.3
20260904232107 74 103 2.0 6.0 0.00 0.00 0.00 37 1012.3
20260904232007 74 65 2.0 6.0 0.00 0.00 0.00 37 1012.3
20260904231906 74 352 2.0 6.0 0.00 0.00 0.00 37 1012.3
20260904231803 74 70 3.0 6.0 0.00 0.00 0.00 35 1012.3
20260904231702 74 345 3.0 6.0 0.00 0.00 0.00 35 1012.3
20260904231602 74 180 4.0 6.0 0.00 0.00 0.00 35 1012.3
20260904231502 74 57 3.0 7.0 0.00 0.00 0.00 37 1012.3
20260904231417 74 80 3.0 7.0 0.00 0.00 0.00 36 1012.3
20260904231355 74 127 3.0 7.0 0.00 0.00 0.00 37 1012.3
20260904231334 74 32 2.0 8.0 0.00 0.00 0.00 37 1012.3
20260904231024 74 46 2.0 9.0 0.00 0.00 0.00 37 1012.3
20260904230950 74 59 1.0 9.0 0.00 0.00 0.00 36 1012.3
20260904230929 74 120 2.0 9.0 0.00 0.00 0.00 36 1012.4
20260904230601 74 346 2.0 9.0 0.00 0.00 0.00 37 1012.4
20260904230501 74 87 3.0 9.0 0.00 0.00 0.00 38 1012.4
20260904230401 74 111 6.0 9.0 0.00 0.00 0.00 37 1012.4
20260904230257 74 132 5.0 9.0 0.00 0.00 0.00 36 1012.4
20260904230158 74 145 4.0 9.0 0.00 0.00 0.00 36 1012.4
20260904230121 74 127 3.0 7.0 0.00 0.00 0.00 36 1012.4
20260904230058 74 79 2.0 8.0 0.00 0.00 0.00 37 1012.4
20260904230023 74 128 2.0 8.0 0.00 0.00 0.00 36 1012.4
20260904225718 74 87 3.0 8.0 0.00 0.00 0.00 37 1012.4
20260904225656 74 172 3.0 8.0 0.00 0.00 0.00 37 1012.4
20260904225635 74 86 3.0 8.0 0.00 0.00 0.00 37 1012.4
20260904225305 74 59 4.0 8.0 0.00 0.00 0.00 37 1012.4
20260904225241 74 160 4.0 8.0 0.00 0.00 0.00 37 1012.4
20260904225218 74 152 3.0 8.0 0.00 0.00 0.00 38 1012.4
20260904224849 74 175 3.0 7.0 0.00 0.00 0.00 39 1012.4
20260904224748 74 193 4.0 7.0 0.00 0.00 0.00 39 1012.3
20260904224649 74 163 4.0 7.0 0.00 0.00 0.00 39 1012.4
20260904224549 74 76 3.0 7.0 0.00 0.00 0.00 37 1012.4
20260904224446 74 59 2.0 7.0 0.00 0.00 0.00 39 1012.4
20260904224345 74 103 2.0 7.0 0.00 0.00 0.00 40 1012.4
20260904224246 74 161 2.0 7.0 0.00 0.00 0.00 39 1012.4
20260904224145 74 111 2.0 7.0 0.00 0.00 0.00 38 1012.4
20260904224044 74 105 2.0 7.0 0.00 0.00 0.00 39 1012.5
20260904223943 74 86 1.0 4.0 0.00 0.00 0.00 39 1012.5
20260904223844 74 123 2.0 4.0 0.00 0.00 0.00 39 1012.5
20260904223819 74 227 1.0 6.0 0.00 0.00 0.00 40 1012.4
20260904223755 74 209 2.0 6.0 0.00 0.00 0.00 40 1012.5
20260904223735 74 69 1.0 6.0 0.00 0.00 0.00 39 1012.4
20260904223714 74 96 2.0 6.0 0.00 0.00 0.00 39 1012.5
20260904223638 74 232 2.0 6.0 0.00 0.00 0.00 40 1012.5
20260904223039 74 0 2.0 7.0 0.00 0.00 0.00 40 1012.5
20260904222938 74 90 4.0 8.0 0.00 0.00 0.00 40 1012.5
20260904222838 74 66 3.0 8.0 0.00 0.00 0.00 41 1012.6
20260904222738 74 352 3.0 8.0 0.00 0.00 0.00 41 1012.6
20260904222637 73 20 3.0 8.0 0.00 0.00 0.00 40 1012.5
20260904222535 73 36 4.0 8.0 0.00 0.00 0.00 41 1012.5
20260904222435 73 26 4.0 8.0 0.00 0.00 0.00 41 1012.5
20260904222334 74 79 3.0 8.0 0.00 0.00 0.00 41 1012.5
20260904222234 74 343 4.0 8.0 0.00 0.00 0.00 42 1012.5
20260904222156 73 51 4.0 8.0 0.00 0.00 0.00 41 1012.5
20260904222132 73 147 3.0 8.0 0.00 0.00 0.00 41 1012.5
20260904222112 73 113 2.0 8.0 0.00 0.00 0.00 41 1012.5
20260904222037 73 114 2.0 8.0 0.00 0.00 0.00 41 1012.5
20260904222016 73 181 2.0 8.0 0.00 0.00 0.00 40 1012.5
20260904221728 73 22 2.0 8.0 0.00 0.00 0.00 42 1012.5
20260904221421 73 115 5.0 8.0 0.00 0.00 0.00 43 1012.6
20260904221359 73 47 4.0 8.0 0.00 0.00 0.00 42 1012.5
20260904221029 72 94 2.0 7.0 0.00 0.00 0.00 42 1012.6
20260904220928 72 110 2.0 7.0 0.00 0.00 0.00 43 1012.6
20260904220842 72 324 2.0 7.0 0.00 0.00 0.00 41 1012.6
20260904220820 72 264 2.0 7.0 0.00 0.00 0.00 41 1012.6
20260904220757 72 93 3.0 7.0 0.00 0.00 0.00 41 1012.6
20260904220431 72 74 3.0 7.0 0.00 0.00 0.00 42 1012.6
20260904220331 72 147 3.0 7.0 0.00 0.00 0.00 42 1012.6
20260904220304 72 71 3.0 7.0 0.00 0.00 0.00 42 1012.7
20260904220241 72 57 3.0 7.0 0.00 0.00 0.00 42 1012.7
20260904220219 72 96 3.0 7.0 0.00 0.00 0.00 41 1012.6
20260904220159 72 65 4.0 7.0 0.00 0.00 0.00 40 1012.7
20260904220122 73 102 5.0 7.0 0.00 0.00 0.00 40 1012.7
20260904215523 73 159 2.0 5.0 0.00 0.00 0.00 41 1012.7
20260904215423 73 93 2.0 5.0 0.00 0.00 0.00 41 1012.7
20260904215333 73 88 3.0 5.0 0.00 0.00 0.00 43 1012.7
20260904215312 73 86 2.0 5.0 0.00 0.00 0.00 43 1012.7
20260904215250 73 19 1.0 5.0 0.00 0.00 0.00 42 1012.7
20260904214947 73 77 3.0 5.0 0.00 0.00 0.00 44 1012.7
20260904214911 73 134 2.0 5.0 0.00 0.00 0.00 44 1012.7
20260904214852 73 56 1.0 5.0 0.00 0.00 0.00 43 1012.7
20260904214520 72 78 2.0 5.0 0.00 0.00 0.00 44 1012.7
20260904214443 72 87 2.0 5.0 0.00 0.00 0.00 43 1012.7
20260904214408 72 22 3.0 5.0 0.00 0.00 0.00 45 1012.7
20260904214347 72 53 3.0 5.0 0.00 0.00 0.00 44 1012.8
20260904214015 72 352 2.0 5.0 0.00 0.00 0.00 46 1012.7
20260904213914 72 59 2.0 5.0 0.00 0.00 0.00 45 1012.7
20260904213814 71 100 1.0 4.0 0.00 0.00 0.00 46 1012.7
20260904213714 71 161 1.0 4.0 0.00 0.00 0.00 44 1012.7
20260904213648 71 126 1.0 4.0 0.00 0.00 0.00 45 1012.7
20260904213628 71 220 2.0 4.0 0.00 0.00 0.00 45 1012.7
20260904213606 71 111 2.0 4.0 0.00 0.00 0.00 44 1012.7
20260904213300 71 61 2.0 4.0 0.00 0.00 0.00 45 1012.7
20260904213239 71 24 2.0 4.0 0.00 0.00 0.00 46 1012.7
20260904212909 71 50 2.0 7.0 0.00 0.00 0.00 45 1012.8
20260904212808 71 36 1.0 7.0 0.00 0.00 0.00 45 1012.7
20260904212707 71 74 1.0 7.0 0.00 0.00 0.00 45 1012.7
20260904212630 71 47 2.0 7.0 0.00 0.00 0.00 45 1012.7
20260904212608 71 13 2.0 7.0 0.00 0.00 0.00 47 1012.8
20260904212547 71 36 2.0 7.0 0.00 0.00 0.00 46 1012.8
20260904212201 71 57 3.0 7.0 0.00 0.00 0.00 46 1012.7
20260904212104 71 5 3.0 7.0 0.00 0.00 0.00 45 1012.8
20260904212002 71 69 2.0 7.0 0.00 0.00 0.00 47 1012.8
20260904211903 71 94 2.0 4.0 0.00 0.00 0.00 46 1012.7
20260904211801 71 148 2.0 4.0 0.00 0.00 0.00 46 1012.7
20260904211716 71 5 2.0 4.0 0.00 0.00 0.00 45 1012.7
20260904211653 71 145 2.0 4.0 0.00 0.00 0.00 46 1012.7
20260904211634 71 53 2.0 4.0 0.00 0.00 0.00 46 1012.8
20260904211302 71 64 2.0 4.0 0.00 0.00 0.00 47 1012.7
20260904211214 71 46 2.0 4.0 0.00 0.00 0.00 47 1012.7
20260904211151 71 87 2.0 4.0 0.00 0.00 0.00 47 1012.7
20260904211132 71 76 2.0 4.0 0.00 0.00 0.00 47 1012.7
20260904210802 70 342 2.0 7.0 0.00 0.00 0.00 46 1012.7
20260904210705 70 59 2.0 7.0 0.00 0.00 0.00 46 1012.7
20260904210601 70 339 2.0 7.0 0.00 0.00 0.00 45 1012.7
20260904210531 70 51 1.0 7.0 0.00 0.00 0.00 46 1012.7
20260904210507 70 62 0.0 7.0 0.00 0.00 0.00 46 1012.7
20260904210433 70 93 1.0 7.0 0.00 0.00 0.00 45 1012.7
20260904210001 71 96 3.0 7.0 0.00 0.00 0.00 45 1012.7
20260904205935 71 99 2.0 7.0 0.00 0.00 0.00 45 1012.7
20260904205900 71 90 3.0 6.0 0.00 0.00 0.00 46 1012.7
20260904205839 70 162 4.0 6.0 0.00 0.00 0.00 47 1012.7
20260904205818 70 213 4.0 6.0 0.00 0.00 0.00 45 1012.7
20260904205757 70 106 3.0 6.0 0.00 0.00 0.00 47 1012.7
20260904205736 70 85 2.0 6.0 0.00 0.00 0.00 46 1012.7
20260904205713 70 105 3.0 6.0 0.00 0.00 0.00 46 1012.6
20260904205640 70 61 3.0 6.0 0.00 0.00 0.00 45 1012.6
20260904205618 70 108 2.0 6.0 0.00 0.00 0.00 46 1012.6
20260904205331 70 340 2.0 6.0 0.00 0.00 0.00 47 1012.6
20260904205310 70 76 2.0 6.0 0.00 0.00 0.00 46 1012.6
20260904205005 70 80 2.0 6.0 0.00 0.00 0.00 46 1012.6
20260904204447 70 51 3.0 7.0 0.00 0.00 0.00 47 1012.7
20260904204103 70 78 2.0 7.0 0.00 0.00 0.00 47 1012.6
20260904204003 70 80 2.0 7.0 0.00 0.00 0.00 47 1012.6
20260904203901 70 36 2.0 7.0 0.00 0.00 0.00 48 1012.6
20260904203812 70 5 2.0 7.0 0.00 0.00 0.00 47 1012.6
20260904203701 70 72 2.0 7.0 0.00 0.00 0.00 47 1012.6
20260904203601 70 23 2.0 7.0 0.00 0.00 0.00 46 1012.6
20260904203529 70 96 3.0 7.0 0.00 0.00 0.00 47 1012.6
20260904203505 70 35 1.0 7.0 0.00 0.00 0.00 47 1012.6
20260904203444 70 27 1.0 5.0 0.00 0.00 0.00 46 1012.6
20260904203120 70 47 2.0 5.0 0.00 0.00 0.00 48 1012.6
20260904203100 70 50 2.0 5.0 0.00 0.00 0.00 47 1012.6
20260904203039 70 52 2.0 5.0 0.00 0.00 0.00 50 1012.6
20260904202700 70 22 2.0 5.0 0.00 0.00 0.00 48 1012.6
20260904202600 69 352 2.0 5.0 0.00 0.00 0.00 49 1012.6
20260904202500 69 188 2.0 5.0 0.00 0.00 0.00 47 1012.6
20260904202403 69 171 1.0 5.0 0.00 0.00 0.00 47 1012.7
20260904202307 69 108 2.0 5.0 0.00 0.00 0.00 47 1012.7
20260904202203 69 275 2.0 5.0 0.00 0.00 0.00 47 1012.7
20260904202100 69 279 2.0 5.0 0.00 0.00 0.00 47 1012.7
20260904202000 69 0 2.0 5.0 0.00 0.00 0.00 49 1012.7
20260904201859 69 24 2.0 5.0 0.00 0.00 0.00 48 1012.7
20260904201802 69 352 2.0 5.0 0.00 0.00 0.00 48 1012.7
20260904201709 69 9 2.0 4.0 0.00 0.00 0.00 48 1012.8
20260904201646 69 36 2.0 4.0 0.00 0.00 0.00 47 1012.7
20260904201626 69 24 2.0 3.0 0.00 0.00 0.00 48 1012.7
20260904201258 69 88 2.0 4.0 0.00 0.00 0.00 49 1012.8
20260904201154 69 117 1.0 4.0 0.00 0.00 0.00 49 1012.8
20260904201053 69 298 1.0 4.0 0.00 0.00 0.00 48 1012.8
20260904200954 69 112 1.0 5.0 0.00 0.00 0.00 49 1012.8
20260904200856 69 52 2.0 5.0 0.00 0.00 0.00 48 1012.8
20260904200834 69 352 2.0 5.0 0.00 0.00 0.00 48 1012.8
20260904200756 69 267 1.0 5.0 0.00 0.00 0.00 47 1012.8
20260904200736 69 92 2.0 5.0 0.00 0.00 0.00 47 1012.8
20260904200716 69 80 2.0 5.0 0.00 0.00 0.00 48 1012.8
20260904200652 69 75 2.0 5.0 0.00 0.00 0.00 48 1012.8
20260904200347 69 32 2.0 5.0 0.00 0.00 0.00 48 1012.8
20260904200057 69 53 3.0 5.0 0.00 0.00 0.00 49 1012.8
20260904200037 69 53 2.0 5.0 0.00 0.00 0.00 49 1012.8
20260904195731 69 326 1.0 6.0 0.00 0.00 0.00 48 1012.8
20260904195710 69 5 2.0 6.0 0.00 0.00 0.00 49 1012.8
20260904195648 69 51 1.0 6.0 0.00 0.00 0.00 50 1012.8
20260904195357 69 139 1.0 6.0 0.00 0.00 0.00 49 1012.8
20260904195324 69 136 2.0 6.0 0.00 0.00 0.00 49 1012.8
20260904195306 69 160 2.0 6.0 0.00 0.00 0.00 49 1012.8
20260904195013 69 136 3.0 6.0 0.00 0.00 0.00 49 1012.8
20260904194643 69 60 3.0 5.0 0.00 0.00 0.00 49 1012.9
20260904194620 69 42 3.0 5.0 0.00 0.00 0.00 50 1012.8
20260904194600 69 80 2.0 5.0 0.00 0.00 0.00 51 1012.8
20260904194247 69 27 1.0 5.0 0.00 0.00 0.00 51 1012.9
20260904194129 69 307 2.0 5.0 0.00 0.00 0.00 50 1012.9
20260904194030 69 302 2.0 5.0 0.00 0.00 0.00 49 1012.9
20260904193931 69 339 3.0 5.0 0.00 0.00 0.00 50 1012.9
20260904193831 69 340 3.0 5.0 0.00 0.00 0.00 49 1012.8
20260904193742 69 351 2.0 4.0 0.00 0.00 0.00 50 1012.9
20260904193629 69 345 1.0 4.0 0.00 0.00 0.00 50 1012.9
20260904193528 69 318 1.0 4.0 0.00 0.00 0.00 50 1012.9
20260904193431 69 80 2.0 4.0 0.00 0.00 0.00 50 1012.9
20260904193329 69 5 3.0 4.0 0.00 0.00 0.00 49 1012.9
20260904193240 69 5 2.0 4.0 0.00 0.00 0.00 49 1012.9
20260904193128 69 119 2.0 4.0 0.00 0.00 0.00 50 1012.9
20260904193030 69 151 2.0 4.0 0.00 0.00 0.00 49 1012.9
20260904192928 69 87 2.0 4.0 0.00 0.00 0.00 49 1012.9
20260904192829 69 51 2.0 4.0 0.00 0.00 0.00 50 1012.9
20260904192736 69 32 2.0 3.0 0.00 0.00 0.00 51 1013.0
20260904192632 69 327 2.0 3.0 0.00 0.00 0.00 49 1012.9
20260904192610 69 352 2.0 3.0 0.00 0.00 0.00 49 1013.0
20260904192546 69 119 2.0 3.0 0.00 0.00 0.00 50 1013.0
20260904192525 69 86 1.0 3.0 0.00 0.00 0.00 49 1013.0
20260904192506 69 94 1.0 3.0 0.00 0.00 0.00 49 1013.0
20260904192430 69 69 1.0 3.0 0.00 0.00 0.00 50 1013.0
20260904191829 69 58 1.0 4.0 0.00 0.00 0.00 52 1013.0
20260904191735 69 45 1.0 4.0 0.00 0.00 0.00 52 1013.0
20260904191627 69 352 1.0 4.0 0.00 0.00 0.00 52 1013.0
20260904191528 69 352 1.0 4.0 0.00 0.00 0.00 51 1013.0
20260904191427 69 70 0.0 4.0 0.00 0.00 0.00 52 1013.1
20260904191347 69 128 1.0 4.0 0.00 0.00 0.00 51 1013.1
20260904191325 69 155 1.0 4.0 0.00 0.00 0.00 50 1013.1
20260904191251 68 49 2.0 5.0 0.00 0.00 0.00 51 1013.0
20260904190919 68 113 2.0 5.0 0.00 0.00 0.00 52 1013.0
20260904190819 68 30 1.0 5.0 0.00 0.00 0.00 51 1013.0
20260904190730 68 352 1.0 6.0 0.00 0.00 0.00 51 1013.1
20260904190614 68 352 1.0 6.0 0.00 0.00 0.00 52 1013.1
20260904190512 68 347 1.0 6.0 0.00 0.00 0.00 51 1013.1
20260904190411 68 308 2.0 6.0 0.00 0.00 0.00 52 1013.1
20260904190311 68 284 2.0 6.0 0.00 0.00 0.00 51 1013.1
20260904190210 68 317 1.0 6.0 0.00 0.00 0.00 52 1013.1
20260904190112 68 19 1.0 6.0 0.00 0.00 0.00 51 1013.2
20260904190008 68 301 2.0 6.0 0.00 0.00 0.00 51 1013.2
20260904185908 68 310 3.0 6.0 0.00 0.00 0.00 51 1013.2
20260904185807 68 350 3.0 6.0 0.00 0.00 0.00 50 1013.2
20260904185706 68 255 2.0 5.0 0.00 0.00 0.00 51 1013.2
20260904185606 68 178 3.0 5.0 0.00 0.00 0.00 50 1013.2
20260904185506 68 190 2.0 5.0 0.00 0.00 0.00 51 1013.2
20260904185405 68 196 2.0 5.0 0.00 0.00 0.00 50 1013.2
20260904185306 68 150 2.0 5.0 0.00 0.00 0.00 50 1013.2
20260904185203 68 123 2.0 8.0 0.00 0.00 0.00 52 1013.2
20260904185103 68 65 2.0 8.0 0.00 0.00 0.00 51 1013.2
20260904185004 68 64 2.0 8.0 0.00 0.00 0.00 52 1013.3
20260904184904 68 30 2.0 8.0 0.00 0.00 0.00 53 1013.2
20260904184803 68 19 2.0 8.0 0.00 0.00 0.00 53 1013.2
20260904184723 68 88 2.0 8.0 0.00 0.00 0.00 53 1013.3
20260904184701 68 281 2.0 8.0 0.00 0.00 0.00 53 1013.3
20260904184639 68 5 4.0 8.0 0.00 0.00 0.00 52 1013.3
20260904184619 68 300 4.0 8.0 0.00 0.00 0.00 50 1013.3